[{"header": {"parameterCategory": 1, "parameterNumber": 2, "dx": 0.06612293990616946, "dy": 0.0552356325346848, "nx": 98, "ny": 59, "la1": 35.046912555036876, "la2": 31.78801023549047, "lo1": -121.43107172385933, "lo2": -114.95102361305473, "refTime": "2026041115"}, "data": [12.96, 12.96, 12.52, 12.52, 12.07, 12.07, 12.07, 11.62, 11.62, 11.62, 11.62, 11.18, 11.18, 10.73, 10.73, 10.28, 9.83, 9.83, 9.39, 9.39, 8.94, 8.94, 8.94, 9.39, 9.39, 9.39, 9.39, 9.39, 9.39, 9.39, 9.39, 8.94, 8.49, 8.49, 8.05, 8.49, 8.49, 8.49, 8.94, 8.94, 8.94, 8.94, 8.94, 8.94, 9.39, 9.39, 9.83, 9.83, 10.28, 10.28, 10.28, 10.73, 10.73, 10.73, 10.73, 10.73, 10.73, 10.73, 10.73, 10.73, 10.73, 11.18, 11.18, 11.18, 10.73, 10.73, 10.28, 10.28, 9.83, 9.39, 9.83, 10.28, 10.28, 10.73, 10.73, 10.73, 11.18, 11.18, 11.18, 11.18, 11.18, 11.62, 11.62, 12.07, 12.07, 12.07, 12.07, 11.62, 11.62, 11.18, 11.18, 11.18, 10.73, 11.18, 11.18, 11.18, 11.62, 11.62, 12.96, 12.96, 12.52, 12.52, 12.52, 12.07, 12.07, 12.07, 11.62, 11.62, 11.62, 11.62, 11.18, 11.18, 10.73, 10.28, 10.28, 9.83, 9.39, 9.39, 9.39, 8.94, 8.94, 9.39, 9.39, 9.39, 9.39, 9.39, 9.39, 9.39, 9.39, 9.39, 8.94, 8.94, 8.49, 8.49, 8.94, 8.94, 9.39, 9.39, 9.83, 9.83, 9.83, 9.83, 9.83, 10.28, 10.28, 10.28, 10.73, 10.73, 11.18, 11.18, 11.18, 11.18, 11.18, 11.18, 11.18, 10.73, 10.73, 11.18, 11.18, 11.62, 11.62, 11.62, 11.62, 11.18, 11.18, 10.73, 10.28, 9.83, 10.28, 10.73, 11.18, 11.18, 11.18, 11.18, 11.18, 11.18, 11.18, 11.18, 11.18, 11.62, 11.62, 12.07, 12.07, 12.07, 12.07, 11.62, 11.62, 11.18, 11.18, 11.18, 10.73, 11.18, 11.18, 11.18, 11.62, 11.62, 12.96, 12.96, 12.52, 12.52, 12.52, 12.07, 12.07, 12.07, 11.62, 11.62, 11.62, 11.62, 11.18, 11.18, 11.18, 10.73, 10.28, 9.83, 9.83, 9.39, 9.39, 8.94, 8.94, 8.94, 9.39, 9.39, 9.83, 9.39, 9.39, 9.39, 9.39, 9.39, 9.39, 9.39, 9.39, 9.39, 9.39, 9.83, 9.83, 10.28, 10.28, 10.28, 10.28, 10.28, 10.28, 10.73, 10.73, 11.18, 11.18, 11.18, 11.62, 11.62, 11.62, 11.62, 11.62, 11.62, 11.18, 11.18, 11.18, 11.62, 11.62, 12.07, 12.07, 12.07, 12.07, 12.07, 11.62, 11.18, 10.73, 10.28, 10.73, 11.18, 11.62, 11.62, 11.62, 11.62, 11.62, 11.62, 11.62, 11.62, 11.62, 11.62, 11.62, 12.07, 12.07, 12.07, 12.07, 12.07, 11.62, 11.18, 11.18, 11.18, 10.73, 11.18, 11.18, 11.18, 11.62, 11.62, 12.96, 12.96, 12.96, 12.52, 12.52, 12.07, 12.07, 12.07, 11.62, 11.62, 11.62, 11.62, 11.62, 11.62, 11.18, 11.18, 10.73, 10.28, 9.83, 9.83, 9.39, 9.39, 9.39, 9.39, 9.39, 9.39, 9.83, 9.83, 9.83, 9.83, 9.83, 9.39, 9.39, 9.39, 9.39, 9.83, 9.83, 10.28, 10.73, 10.73, 10.73, 10.73, 10.73, 10.73, 11.18, 11.18, 11.18, 11.62, 11.62, 11.62, 11.62, 11.62, 11.62, 11.62, 11.62, 11.62, 11.62, 11.62, 11.62, 12.07, 12.52, 12.96, 12.96, 12.96, 12.96, 12.52, 12.07, 11.62, 11.18, 11.18, 11.18, 11.62, 11.62, 12.07, 12.07, 11.62, 11.62, 11.62, 11.62, 11.62, 11.62, 11.62, 12.07, 12.07, 12.52, 12.07, 12.07, 12.07, 11.62, 11.18, 11.18, 11.18, 11.18, 11.18, 11.18, 11.62, 11.62, 12.07, 13.41, 12.96, 12.96, 12.52, 12.52, 12.52, 12.07, 12.07, 12.07, 11.62, 11.62, 11.62, 11.62, 11.62, 11.62, 11.18, 10.73, 10.73, 10.28, 9.83, 9.83, 9.39, 9.39, 9.39, 9.39, 9.39, 9.83, 10.28, 10.28, 10.28, 10.28, 9.83, 9.83, 9.83, 9.39, 9.39, 9.83, 10.28, 11.18, 11.62, 11.18, 11.18, 11.18, 11.18, 11.62, 11.62, 11.62, 12.07, 12.07, 12.07, 12.07, 12.07, 12.07, 12.07, 11.62, 11.62, 12.07, 12.07, 12.52, 12.52, 13.41, 13.86, 13.86, 13.86, 12.96, 12.52, 12.52, 12.07, 12.07, 11.62, 11.62, 11.62, 12.07, 12.52, 12.52, 12.52, 12.52, 12.07, 12.07, 11.62, 12.07, 12.07, 12.07, 12.52, 12.52, 12.52, 12.07, 12.07, 11.62, 11.62, 11.18, 11.18, 11.18, 11.18, 11.62, 11.62, 11.62, 12.07, 13.41, 12.96, 12.96, 12.96, 12.52, 12.52, 12.07, 12.07, 12.07, 11.62, 11.62, 11.62, 11.62, 11.62, 11.62, 11.62, 11.18, 11.18, 10.73, 10.28, 10.28, 9.83, 9.83, 9.39, 9.39, 9.39, 9.83, 9.83, 10.28, 10.73, 10.73, 10.28, 10.28, 10.28, 9.83, 9.83, 10.28, 10.28, 11.18, 11.62, 11.62, 11.62, 11.62, 11.62, 11.62, 12.07, 12.07, 12.07, 12.52, 12.52, 12.07, 12.07, 12.07, 12.07, 12.07, 12.07, 12.52, 12.96, 13.41, 13.41, 14.3, 14.3, 14.3, 13.86, 13.41, 12.96, 12.96, 12.96, 12.96, 12.96, 12.52, 12.52, 12.52, 12.52, 12.96, 13.41, 12.96, 12.96, 12.52, 12.07, 12.52, 12.52, 12.52, 12.52, 12.96, 12.52, 12.07, 12.07, 12.07, 11.62, 11.18, 10.73, 11.18, 11.18, 11.62, 11.62, 12.07, 12.52, 13.41, 13.41, 12.96, 12.96, 12.96, 12.52, 12.52, 12.07, 12.07, 11.62, 11.62, 11.62, 11.62, 11.62, 11.62, 11.62, 11.62, 11.62, 11.18, 10.73, 10.73, 10.28, 10.28, 10.28, 9.83, 9.83, 9.83, 9.83, 10.28, 10.73, 10.73, 11.18, 11.18, 10.73, 10.73, 10.73, 10.73, 10.73, 11.18, 12.07, 12.07, 12.07, 12.07, 11.62, 11.62, 11.62, 12.07, 12.07, 12.52, 12.52, 12.52, 12.52, 12.52, 12.52, 12.96, 12.96, 13.41, 13.86, 14.3, 14.3, 14.75, 14.75, 14.75, 14.3, 13.86, 13.41, 13.41, 13.86, 14.3, 13.86, 13.86, 13.86, 12.96, 12.96, 13.41, 13.86, 13.86, 13.41, 12.96, 12.52, 12.52, 12.52, 12.96, 12.96, 12.52, 12.52, 12.52, 12.07, 12.07, 11.62, 11.18, 11.18, 11.18, 11.18, 11.18, 11.62, 12.07, 12.52, 13.41, 13.41, 13.41, 12.96, 12.96, 12.96, 12.52, 12.52, 12.07, 12.07, 12.07, 11.62, 11.62, 12.07, 12.07, 12.07, 12.07, 11.62, 11.62, 11.18, 11.18, 10.73, 10.73, 10.73, 10.73, 10.28, 10.28, 10.28, 10.28, 10.73, 11.18, 11.18, 11.62, 11.18, 11.18, 11.18, 11.62, 11.18, 11.62, 12.07, 12.52, 12.52, 12.52, 12.52, 12.07, 12.07, 12.07, 12.07, 12.52, 12.96, 12.96, 12.96, 12.96, 13.41, 13.41, 13.86, 14.3, 14.3, 14.75, 14.75, 14.75, 14.75, 14.75, 14.75, 14.75, 14.3, 14.3, 14.75, 15.2, 15.2, 14.75, 14.3, 13.86, 13.86, 13.86, 13.86, 13.86, 13.41, 12.96, 12.96, 13.41, 12.96, 12.96, 12.96, 12.96, 12.52, 12.52, 12.52, 12.07, 11.62, 11.18, 11.18, 11.18, 11.18, 11.18, 11.62, 12.07, 12.52, 13.86, 13.41, 13.41, 13.41, 12.96, 12.96, 12.96, 12.52, 12.52, 12.07, 12.07, 12.07, 12.07, 12.07, 12.07, 12.07, 12.07, 12.07, 12.07, 11.62, 11.62, 11.62, 11.18, 11.18, 11.18, 11.18, 10.73, 10.73, 10.73, 11.18, 11.18, 11.62, 11.62, 11.62, 11.62, 12.07, 12.07, 12.07, 12.07, 12.52, 12.52, 12.96, 12.96, 12.96, 12.96, 12.96, 12.96, 12.96, 12.96, 12.96, 13.41, 13.41, 13.86, 13.86, 14.3, 14.3, 14.75, 14.75, 14.75, 14.75, 15.2, 15.2, 15.65, 15.65, 15.65, 15.65, 15.2, 15.65, 16.09, 16.09, 15.65, 14.75, 14.3, 14.3, 14.3, 14.3, 14.3, 13.86, 13.41, 13.41, 13.41, 13.41, 13.41, 12.96, 12.96, 12.96, 12.52, 12.52, 12.07, 11.62, 11.62, 11.18, 11.62, 11.18, 11.18, 12.07, 12.52, 12.96, 13.86, 13.86, 13.86, 13.41, 13.41, 13.41, 12.96, 12.96, 12.52, 12.52, 12.07, 12.07, 12.07, 12.07, 12.07, 12.52, 12.52, 12.52, 12.07, 12.07, 12.07, 12.07, 11.62, 11.62, 11.62, 11.62, 11.62, 11.62, 11.62, 11.62, 11.62, 11.62, 12.07, 12.07, 12.07, 12.52, 12.52, 12.52, 12.96, 12.96, 12.96, 13.41, 13.41, 13.86, 13.86, 13.86, 13.86, 13.86, 13.86, 13.41, 13.86, 13.86, 13.86, 14.3, 14.3, 14.3, 14.3, 14.75, 14.75, 15.2, 15.65, 16.09, 16.54, 16.99, 16.99, 16.54, 16.09, 16.09, 16.09, 16.09, 16.09, 15.2, 14.75, 14.3, 14.75, 14.75, 14.3, 13.86, 13.86, 13.41, 13.41, 13.86, 13.41, 13.41, 13.41, 12.96, 12.96, 12.52, 12.52, 12.07, 11.62, 11.18, 11.62, 11.62, 11.62, 12.07, 12.52, 12.96, 14.3, 13.86, 13.86, 13.86, 13.86, 13.41, 13.41, 12.96, 12.96, 12.52, 12.52, 12.52, 12.07, 12.52, 12.52, 12.52, 12.52, 12.52, 12.52, 12.52, 12.52, 12.52, 12.07, 12.07, 12.07, 12.07, 12.07, 12.07, 12.07, 12.07, 12.07, 12.07, 12.52, 12.52, 12.52, 12.96, 12.96, 12.96, 13.41, 13.41, 13.41, 13.86, 14.3, 14.3, 14.3, 14.3, 14.75, 14.75, 14.75, 14.75, 14.75, 14.75, 14.3, 14.3, 14.3, 14.3, 14.3, 14.75, 15.65, 16.54, 16.99, 17.43, 17.88, 17.88, 17.88, 17.43, 16.54, 16.09, 16.54, 16.54, 16.09, 15.65, 14.75, 14.75, 15.2, 15.2, 15.2, 14.75, 14.3, 14.3, 13.86, 13.86, 13.86, 13.41, 13.41, 13.41, 12.96, 12.96, 12.52, 12.07, 11.62, 11.62, 11.62, 11.62, 11.62, 12.07, 12.96, 13.41, 14.3, 14.3, 14.3, 14.3, 13.86, 13.86, 13.41, 13.41, 12.96, 12.96, 12.96, 12.52, 12.52, 12.52, 12.52, 12.52, 12.52, 12.96, 12.96, 12.96, 12.96, 12.96, 12.96, 12.52, 12.52, 12.52, 12.52, 12.52, 12.52, 12.52, 12.96, 12.96, 12.96, 13.41, 13.41, 13.41, 13.41, 13.41, 13.86, 13.86, 13.86, 14.3, 14.75, 14.75, 14.75, 15.2, 15.2, 15.2, 15.2, 15.65, 15.65, 15.65, 15.65, 15.65, 15.65, 15.65, 15.65, 15.65, 16.09, 17.43, 18.33, 18.33, 18.78, 18.78, 18.78, 18.78, 17.88, 17.43, 16.99, 17.43, 16.99, 16.54, 15.65, 15.65, 15.65, 15.65, 15.65, 15.2, 14.75, 14.75, 14.3, 13.86, 13.86, 13.41, 13.41, 13.41, 13.41, 12.96, 12.52, 12.07, 11.62, 11.62, 11.62, 12.07, 12.07, 12.52, 12.96, 13.41, 14.75, 14.75, 14.3, 14.3, 14.3, 14.3, 13.86, 13.86, 13.41, 13.41, 12.96, 12.96, 12.96, 12.52, 12.96, 12.96, 12.96, 12.96, 12.96, 12.96, 12.96, 12.96, 12.96, 13.41, 12.96, 12.96, 12.96, 12.96, 12.96, 13.41, 13.41, 13.41, 13.41, 13.86, 13.86, 13.86, 14.3, 14.3, 14.3, 14.3, 14.3, 14.75, 14.75, 15.2, 15.2, 15.65, 15.65, 15.65, 16.09, 16.09, 16.54, 16.54, 16.99, 16.99, 17.43, 17.88, 17.88, 16.99, 16.99, 18.33, 19.22, 19.22, 19.67, 20.12, 20.12, 20.56, 20.12, 19.67, 18.78, 18.33, 17.88, 17.43, 16.54, 16.54, 16.54, 16.54, 16.09, 15.65, 15.2, 15.2, 14.75, 14.3, 13.86, 13.86, 13.41, 12.96, 12.96, 12.96, 12.07, 11.62, 11.62, 11.62, 12.07, 12.07, 12.07, 12.52, 12.96, 13.41, 14.75, 14.75, 14.75, 14.75, 14.75, 14.3, 14.3, 14.3, 13.86, 13.86, 13.41, 13.41, 13.41, 12.96, 12.96, 12.96, 12.96, 13.41, 13.41, 13.41, 13.41, 13.41, 13.41, 13.41, 13.41, 13.41, 13.41, 13.41, 13.41, 13.41, 13.86, 13.86, 13.86, 14.3, 14.3, 14.3, 14.3, 14.3, 14.75, 14.75, 14.75, 15.2, 15.2, 15.2, 15.65, 15.65, 16.09, 16.09, 16.54, 16.54, 16.54, 16.99, 16.99, 17.43, 17.88, 18.78, 18.78, 17.88, 17.88, 18.78, 19.67, 20.12, 20.56, 20.56, 21.01, 21.9, 21.9, 21.9, 21.01, 20.12, 18.78, 17.43, 16.99, 16.99, 16.99, 16.99, 16.54, 16.09, 15.65, 15.2, 14.75, 14.3, 13.86, 13.86, 13.41, 12.96, 12.96, 12.96, 12.07, 11.62, 11.62, 11.62, 11.62, 12.07, 12.52, 12.96, 13.41, 13.41, 15.2, 15.2, 15.2, 15.2, 14.75, 14.75, 14.75, 14.3, 14.3, 14.3, 13.86, 13.86, 13.86, 13.41, 13.41, 13.41, 13.41, 13.41, 13.41, 13.41, 13.86, 13.86, 13.86, 13.86, 13.86, 13.86, 13.86, 13.86, 13.86, 13.86, 13.86, 14.3, 14.3, 14.3, 14.75, 14.75, 14.75, 14.75, 14.75, 15.2, 15.2, 15.65, 15.65, 15.65, 16.09, 16.09, 16.54, 16.54, 16.99, 16.99, 16.99, 16.99, 17.43, 17.88, 18.33, 18.78, 19.22, 18.78, 18.33, 19.22, 19.67, 20.12, 20.12, 20.56, 21.01, 21.46, 21.9, 21.9, 21.9, 21.01, 19.22, 17.43, 17.43, 17.43, 17.43, 17.43, 16.54, 16.09, 15.65, 14.75, 14.3, 14.3, 13.86, 13.86, 13.41, 12.96, 12.52, 12.52, 12.07, 11.62, 11.62, 12.07, 12.07, 12.07, 12.52, 13.41, 13.41, 13.41, 15.65, 15.65, 15.65, 15.2, 15.2, 15.2, 15.2, 14.75, 14.75, 14.75, 14.3, 14.3, 14.3, 13.86, 13.86, 13.86, 13.86, 13.86, 13.86, 13.86, 13.86, 14.3, 14.3, 14.3, 14.3, 14.3, 14.3, 14.3, 14.3, 14.3, 14.3, 14.75, 14.75, 14.75, 15.2, 15.2, 15.2, 15.2, 15.2, 15.65, 15.65, 16.09, 16.09, 16.09, 16.54, 16.54, 16.99, 16.99, 16.99, 17.43, 17.43, 17.43, 17.43, 17.88, 18.33, 18.33, 18.78, 18.78, 18.78, 19.22, 19.67, 19.67, 19.67, 20.12, 21.01, 21.01, 21.46, 21.9, 22.35, 21.46, 20.12, 18.33, 17.43, 17.88, 17.88, 17.43, 16.99, 16.09, 15.2, 14.75, 14.3, 13.86, 13.86, 13.41, 13.41, 12.96, 12.96, 12.52, 12.07, 12.07, 11.62, 12.07, 12.07, 12.07, 12.96, 13.41, 13.41, 13.41, 15.65, 15.65, 15.65, 15.65, 15.65, 15.65, 15.65, 15.2, 15.2, 15.2, 15.2, 14.75, 14.75, 14.75, 14.3, 14.3, 14.3, 14.3, 14.3, 14.3, 14.3, 14.3, 14.3, 14.3, 14.3, 14.75, 14.75, 14.75, 14.75, 14.75, 14.75, 14.75, 15.2, 15.2, 15.2, 15.65, 15.65, 15.65, 16.09, 16.09, 16.09, 16.54, 16.54, 16.54, 16.99, 16.99, 16.99, 17.43, 17.43, 17.88, 17.88, 17.88, 17.88, 18.33, 18.33, 18.78, 19.22, 19.22, 19.67, 19.22, 19.22, 19.22, 19.67, 20.12, 20.56, 20.56, 21.9, 21.9, 21.46, 21.46, 20.56, 19.22, 17.88, 17.88, 18.33, 17.88, 16.99, 16.09, 15.2, 14.75, 14.3, 13.86, 13.86, 13.86, 13.41, 13.41, 12.96, 12.52, 12.07, 11.62, 11.62, 12.07, 12.07, 12.07, 12.96, 13.41, 13.41, 13.41, 16.09, 16.09, 16.09, 16.09, 16.09, 16.09, 16.09, 15.65, 15.65, 15.65, 15.65, 15.65, 15.2, 15.2, 15.2, 14.75, 14.75, 14.75, 14.75, 14.75, 14.75, 14.75, 14.75, 14.75, 14.75, 14.75, 15.2, 15.2, 15.2, 15.2, 15.2, 15.2, 15.65, 15.65, 15.65, 16.09, 16.09, 16.09, 16.54, 16.54, 16.54, 16.99, 16.99, 16.99, 16.99, 17.43, 17.43, 17.88, 17.88, 17.88, 18.33, 18.33, 18.33, 18.78, 18.78, 19.22, 19.22, 19.67, 19.67, 19.67, 19.22, 19.67, 20.12, 20.56, 20.56, 21.01, 21.46, 21.9, 21.9, 21.46, 21.01, 20.12, 18.78, 18.78, 18.78, 18.78, 17.88, 16.99, 16.09, 15.65, 15.2, 14.75, 14.75, 13.86, 13.86, 13.41, 12.96, 12.52, 12.52, 12.07, 11.62, 12.07, 12.07, 12.52, 12.96, 13.41, 13.41, 13.41, 16.54, 16.54, 16.54, 16.54, 16.54, 16.54, 16.54, 16.09, 16.09, 16.09, 16.09, 16.09, 16.09, 15.65, 15.65, 15.65, 15.65, 15.2, 15.2, 15.2, 15.2, 15.2, 15.2, 15.2, 15.2, 15.2, 15.65, 15.65, 15.65, 15.65, 15.65, 15.65, 15.65, 16.09, 16.09, 16.54, 16.54, 16.54, 16.99, 16.99, 16.99, 17.43, 17.43, 17.43, 17.43, 17.88, 17.88, 18.33, 18.33, 18.78, 18.78, 19.22, 19.22, 19.22, 19.67, 19.67, 20.12, 20.12, 20.56, 20.56, 20.56, 20.56, 20.56, 20.56, 21.01, 21.46, 21.9, 21.9, 22.35, 22.35, 21.9, 20.56, 19.22, 18.78, 18.78, 18.78, 18.33, 17.43, 16.54, 16.09, 15.2, 15.2, 15.2, 14.3, 13.86, 13.41, 13.41, 12.96, 12.52, 12.52, 12.07, 12.07, 12.52, 12.52, 12.96, 13.41, 13.86, 13.86, 16.99, 16.99, 16.99, 16.99, 16.99, 16.99, 16.99, 16.54, 16.54, 16.54, 16.54, 16.54, 16.54, 16.54, 16.09, 16.09, 16.09, 16.09, 16.09, 15.65, 15.65, 15.65, 15.65, 15.65, 15.65, 15.65, 15.65, 16.09, 16.09, 16.09, 16.09, 16.09, 16.09, 16.54, 16.54, 16.99, 16.99, 16.99, 17.43, 17.43, 17.43, 17.88, 17.88, 17.88, 18.33, 18.33, 18.33, 18.78, 18.78, 19.22, 19.67, 19.67, 19.67, 20.12, 20.12, 20.12, 20.56, 21.01, 21.01, 21.01, 21.01, 21.01, 21.01, 21.01, 21.46, 21.9, 21.9, 21.9, 22.35, 23.25, 22.35, 21.01, 19.22, 18.78, 18.78, 18.78, 18.33, 17.43, 16.09, 15.65, 15.2, 15.2, 15.2, 14.75, 13.86, 13.41, 13.41, 12.96, 12.96, 12.96, 12.52, 12.07, 12.52, 12.96, 12.96, 13.41, 13.86, 13.86, 16.99, 16.99, 17.43, 17.43, 17.43, 17.43, 17.43, 17.43, 16.99, 16.99, 16.99, 16.99, 16.99, 16.99, 16.99, 16.99, 16.54, 16.54, 16.54, 16.54, 16.54, 16.54, 16.09, 16.09, 16.09, 16.09, 16.09, 16.09, 16.54, 16.54, 16.54, 16.54, 16.54, 16.99, 16.99, 17.43, 17.43, 17.43, 17.88, 17.88, 18.33, 18.33, 18.33, 18.78, 18.78, 18.78, 19.22, 19.22, 19.67, 19.67, 20.12, 20.12, 20.56, 20.56, 21.01, 21.01, 21.01, 21.46, 21.46, 21.46, 21.46, 21.46, 21.46, 21.46, 21.9, 22.35, 22.35, 22.35, 22.8, 23.69, 23.25, 21.46, 19.22, 18.78, 18.78, 18.33, 17.43, 16.99, 16.54, 15.65, 15.65, 15.2, 15.2, 14.75, 14.3, 13.86, 13.41, 12.96, 12.96, 12.96, 12.52, 12.07, 12.52, 12.96, 13.41, 13.41, 13.86, 13.86, 17.43, 17.43, 17.43, 17.88, 17.88, 17.88, 17.88, 17.88, 17.88, 17.43, 17.43, 17.43, 17.43, 17.43, 17.43, 17.43, 17.43, 16.99, 16.99, 16.99, 16.99, 16.99, 16.99, 16.54, 16.54, 16.54, 16.54, 16.54, 16.99, 16.99, 16.99, 16.99, 17.43, 17.43, 17.43, 17.88, 17.88, 18.33, 18.33, 18.33, 18.78, 18.78, 18.78, 19.22, 19.22, 19.22, 19.67, 19.67, 20.12, 20.56, 20.56, 21.01, 21.01, 21.46, 21.9, 21.9, 21.9, 21.46, 21.9, 22.35, 21.9, 21.9, 21.9, 22.35, 22.35, 22.35, 22.8, 22.8, 23.25, 23.69, 23.69, 21.9, 19.22, 18.33, 18.78, 17.88, 17.43, 16.99, 16.54, 16.09, 15.65, 15.2, 15.2, 14.75, 14.3, 13.86, 13.41, 13.41, 12.96, 12.96, 12.52, 12.52, 12.52, 12.96, 13.41, 13.86, 13.86, 13.86, 17.88, 17.88, 17.88, 17.88, 18.33, 18.33, 18.33, 18.33, 18.33, 18.33, 18.33, 18.33, 17.88, 17.88, 17.88, 17.88, 17.88, 17.88, 17.88, 17.43, 17.43, 17.43, 17.43, 17.43, 17.43, 16.99, 16.99, 17.43, 17.43, 17.43, 17.43, 17.43, 17.88, 17.88, 18.33, 18.33, 18.33, 18.78, 18.78, 18.78, 19.22, 19.22, 19.67, 19.67, 19.67, 20.12, 20.12, 20.56, 21.01, 21.01, 21.46, 21.46, 21.9, 22.35, 22.35, 22.8, 22.8, 22.35, 22.35, 22.8, 22.8, 22.35, 22.35, 22.8, 22.8, 22.8, 22.8, 23.25, 23.69, 24.14, 24.14, 22.8, 18.33, 19.22, 18.78, 17.88, 17.43, 16.99, 16.54, 16.09, 15.65, 15.2, 15.2, 14.75, 14.3, 13.86, 13.86, 13.41, 12.96, 12.52, 12.52, 12.52, 12.52, 13.41, 13.86, 13.86, 14.3, 14.3, 18.33, 18.33, 18.33, 18.33, 18.78, 18.78, 18.78, 18.78, 18.78, 18.78, 18.78, 18.78, 18.78, 18.78, 18.78, 18.78, 18.33, 18.33, 18.33, 18.33, 18.33, 18.33, 18.33, 17.88, 17.88, 17.88, 17.88, 17.88, 17.88, 17.88, 18.33, 18.33, 18.33, 18.78, 18.78, 18.78, 19.22, 19.22, 19.22, 19.67, 19.67, 19.67, 20.12, 20.12, 20.56, 20.56, 20.56, 21.01, 21.46, 21.9, 21.9, 22.35, 22.8, 22.8, 23.25, 23.69, 23.69, 23.25, 22.8, 22.8, 23.25, 22.8, 22.8, 23.25, 23.25, 23.25, 23.25, 23.25, 23.69, 24.14, 23.69, 21.46, 19.22, 18.78, 18.78, 17.88, 17.43, 16.99, 16.54, 16.09, 15.65, 15.2, 14.75, 14.75, 14.3, 13.86, 13.41, 13.41, 12.96, 12.52, 12.52, 12.52, 12.96, 13.41, 13.86, 13.86, 14.3, 14.3, 19.22, 19.22, 18.78, 18.78, 19.22, 19.22, 19.22, 19.22, 19.22, 19.22, 19.22, 19.22, 19.22, 19.22, 19.22, 19.22, 19.22, 19.22, 18.78, 18.78, 18.78, 18.78, 18.78, 18.78, 18.78, 18.33, 18.33, 18.33, 18.33, 18.78, 18.78, 18.78, 19.22, 19.22, 19.22, 19.67, 19.67, 19.67, 20.12, 20.12, 20.56, 20.56, 20.56, 21.01, 21.01, 21.46, 21.46, 21.9, 22.35, 22.35, 22.8, 23.25, 23.25, 23.69, 24.14, 24.14, 24.59, 24.59, 23.69, 22.8, 23.25, 23.69, 23.69, 23.25, 23.25, 23.69, 23.69, 23.69, 23.69, 23.69, 23.25, 22.35, 20.56, 19.22, 18.33, 17.43, 16.99, 16.54, 16.09, 15.65, 15.65, 15.2, 14.75, 14.75, 14.3, 13.86, 13.86, 13.41, 13.41, 12.96, 12.52, 12.52, 12.96, 13.41, 13.86, 14.3, 14.75, 14.75, 19.67, 19.67, 19.67, 19.67, 19.67, 19.67, 19.67, 19.67, 19.67, 19.67, 20.12, 20.12, 20.12, 20.12, 19.67, 19.67, 19.67, 19.67, 19.67, 19.67, 19.67, 19.67, 19.67, 19.67, 19.22, 19.22, 19.22, 19.22, 19.22, 19.22, 19.22, 19.67, 19.67, 20.12, 20.12, 20.12, 20.56, 20.56, 20.56, 21.01, 21.01, 21.46, 21.46, 21.46, 21.9, 21.9, 22.35, 22.8, 23.25, 23.25, 23.69, 24.14, 24.14, 24.59, 24.59, 25.03, 25.03, 25.03, 25.03, 24.14, 23.25, 23.69, 24.14, 23.69, 23.69, 23.69, 23.69, 23.69, 23.69, 23.69, 23.25, 22.8, 21.9, 20.12, 18.33, 17.43, 16.54, 16.54, 16.09, 15.65, 15.65, 15.2, 14.75, 14.75, 14.3, 13.86, 13.86, 13.41, 13.41, 13.41, 12.96, 12.52, 12.96, 13.41, 13.86, 14.3, 14.75, 14.75, 20.12, 20.12, 20.12, 20.12, 20.12, 20.12, 20.12, 20.12, 20.56, 20.56, 20.56, 20.56, 20.56, 20.56, 20.56, 20.56, 20.56, 20.56, 20.56, 20.56, 20.12, 20.12, 20.12, 20.12, 20.12, 20.12, 20.12, 20.12, 20.12, 20.12, 20.12, 21.01, 21.01, 21.46, 21.46, 21.46, 21.9, 21.9, 22.35, 22.35, 22.8, 22.8, 23.25, 22.35, 22.8, 22.8, 23.25, 23.69, 24.14, 24.14, 24.59, 25.03, 25.03, 25.48, 25.48, 25.48, 25.48, 25.48, 25.48, 25.03, 24.14, 23.69, 24.14, 24.14, 24.14, 24.14, 24.14, 23.69, 23.69, 23.25, 22.8, 22.8, 22.35, 21.01, 19.22, 17.43, 16.54, 16.54, 16.54, 16.09, 15.65, 15.2, 15.2, 15.2, 14.75, 14.3, 13.86, 13.41, 13.41, 13.41, 13.41, 12.96, 12.96, 13.41, 13.86, 14.3, 14.75, 14.75, 21.01, 21.01, 20.56, 20.56, 20.56, 20.56, 21.01, 21.01, 21.01, 21.01, 21.01, 21.01, 21.46, 21.46, 21.46, 21.46, 21.01, 21.01, 21.01, 21.01, 21.01, 21.01, 21.01, 21.01, 21.01, 21.01, 21.01, 21.9, 21.46, 21.46, 21.9, 21.9, 21.9, 22.35, 22.35, 22.35, 22.8, 22.8, 23.25, 23.25, 23.69, 23.69, 24.14, 24.14, 24.59, 25.03, 25.03, 24.59, 25.03, 25.03, 25.48, 25.93, 25.93, 25.93, 25.93, 25.93, 25.93, 25.93, 25.93, 25.48, 24.59, 24.14, 24.14, 24.59, 24.59, 24.59, 24.14, 23.69, 23.69, 23.25, 22.8, 22.35, 22.35, 21.46, 20.12, 18.33, 16.54, 16.09, 16.09, 16.09, 16.09, 15.65, 15.2, 15.2, 14.75, 14.75, 14.3, 13.86, 13.41, 13.41, 13.86, 13.41, 12.96, 13.41, 13.86, 14.3, 14.75, 14.75, 21.46, 21.46, 21.46, 21.46, 21.46, 21.46, 21.46, 21.46, 21.46, 21.9, 21.9, 21.9, 21.9, 21.9, 21.9, 21.9, 21.9, 21.9, 21.9, 21.9, 21.9, 21.9, 21.9, 21.9, 21.9, 22.8, 22.8, 22.35, 22.35, 22.35, 22.8, 22.8, 22.8, 22.8, 23.25, 23.25, 23.69, 23.69, 24.14, 24.14, 24.59, 25.03, 25.03, 25.48, 25.48, 25.93, 25.93, 26.37, 26.82, 25.93, 26.37, 26.37, 26.82, 26.82, 26.82, 26.37, 26.37, 26.37, 25.93, 25.93, 25.03, 24.59, 24.59, 25.03, 24.59, 24.59, 24.14, 23.69, 23.69, 23.25, 23.25, 22.35, 21.9, 21.46, 20.56, 18.78, 17.43, 16.54, 15.2, 15.65, 16.09, 15.65, 15.2, 15.2, 14.75, 14.75, 14.3, 13.86, 13.41, 13.41, 13.86, 13.86, 14.3, 13.86, 14.3, 14.75, 14.75, 14.75, 22.35, 22.35, 22.35, 22.35, 22.35, 21.9, 22.35, 22.35, 22.35, 22.35, 22.35, 22.8, 22.8, 22.8, 22.8, 22.8, 22.8, 22.8, 22.8, 22.8, 22.8, 22.8, 23.69, 23.69, 23.69, 23.69, 23.69, 23.25, 23.25, 23.25, 23.69, 23.69, 23.69, 23.69, 24.14, 24.14, 24.59, 24.59, 25.03, 25.48, 25.48, 25.93, 26.37, 26.37, 26.82, 26.37, 26.82, 27.72, 27.72, 27.72, 27.72, 27.72, 27.27, 27.27, 27.27, 26.82, 26.82, 26.37, 26.37, 25.93, 25.48, 24.59, 25.03, 25.03, 24.59, 24.59, 24.14, 23.69, 23.69, 23.25, 23.25, 22.8, 22.35, 21.01, 20.12, 19.22, 18.33, 16.99, 15.65, 15.2, 16.09, 16.09, 15.2, 15.2, 14.75, 14.3, 14.3, 13.86, 13.41, 13.86, 13.86, 14.3, 14.3, 14.3, 14.75, 14.75, 15.2, 15.2, 23.25, 23.25, 23.25, 22.8, 22.8, 22.8, 22.8, 22.8, 23.25, 23.25, 23.25, 23.25, 23.25, 23.25, 23.25, 23.69, 23.69, 23.69, 23.69, 23.69, 23.69, 24.59, 24.59, 24.59, 24.59, 24.59, 24.59, 24.59, 24.59, 24.59, 24.59, 24.59, 24.59, 25.03, 25.03, 25.03, 25.48, 25.93, 25.93, 26.37, 26.82, 26.82, 27.27, 27.72, 27.72, 27.27, 27.72, 28.16, 28.16, 28.16, 28.16, 28.16, 28.16, 27.72, 27.72, 27.27, 27.27, 26.82, 26.37, 26.37, 25.48, 25.03, 25.03, 24.59, 24.59, 25.03, 24.59, 23.69, 23.25, 22.8, 23.25, 23.25, 22.8, 21.01, 19.67, 19.67, 18.78, 17.88, 16.09, 15.2, 15.2, 16.09, 15.65, 15.2, 14.75, 14.3, 13.86, 13.86, 13.86, 13.86, 13.86, 14.3, 14.75, 15.2, 15.2, 15.2, 15.2, 15.2, 24.14, 24.14, 24.14, 23.69, 23.69, 23.69, 23.69, 23.69, 23.69, 23.69, 24.14, 24.14, 24.14, 24.14, 24.14, 24.14, 24.14, 24.59, 24.59, 25.48, 25.48, 25.48, 25.48, 25.48, 25.48, 25.48, 25.48, 25.48, 25.48, 25.48, 25.48, 25.48, 25.93, 25.93, 25.93, 26.37, 26.82, 26.82, 27.27, 27.72, 27.72, 28.16, 28.16, 28.61, 28.61, 28.61, 28.61, 28.61, 29.06, 29.06, 28.61, 28.61, 28.61, 28.16, 28.16, 27.72, 27.27, 26.82, 26.82, 26.37, 25.93, 25.48, 25.03, 24.59, 24.59, 24.59, 24.59, 24.14, 23.25, 22.8, 22.8, 23.25, 22.8, 21.01, 19.22, 19.22, 19.22, 18.33, 16.99, 15.65, 15.2, 15.65, 15.65, 15.65, 14.75, 14.3, 14.3, 13.86, 13.86, 13.86, 14.3, 14.75, 15.2, 15.2, 15.2, 15.65, 15.65, 15.65, 25.03, 25.03, 24.59, 24.59, 24.59, 24.59, 24.59, 24.59, 24.59, 24.59, 24.59, 25.03, 25.03, 25.03, 25.03, 25.03, 25.03, 26.37, 26.37, 26.37, 26.37, 26.37, 26.37, 26.37, 26.37, 26.37, 26.37, 26.37, 26.37, 26.37, 26.82, 26.82, 26.82, 26.82, 27.27, 27.72, 27.72, 28.16, 28.16, 28.61, 29.06, 29.06, 29.06, 29.5, 29.5, 29.5, 29.5, 29.5, 29.5, 29.5, 29.06, 29.06, 28.61, 28.61, 28.16, 27.72, 27.72, 27.27, 26.82, 26.37, 25.93, 25.03, 25.03, 24.59, 24.14, 24.14, 24.14, 24.14, 23.69, 23.25, 22.8, 23.25, 22.8, 21.9, 19.67, 19.22, 19.67, 18.78, 17.43, 16.09, 16.09, 16.09, 16.09, 15.65, 15.2, 14.75, 14.3, 14.3, 13.86, 13.86, 14.3, 14.75, 15.2, 15.65, 16.09, 15.65, 16.09, 16.09, 25.93, 25.93, 25.48, 25.48, 25.48, 25.48, 25.48, 25.48, 25.48, 25.48, 25.48, 25.93, 25.93, 25.93, 25.93, 25.93, 27.27, 27.27, 27.27, 27.27, 27.27, 27.27, 27.27, 27.27, 27.72, 27.72, 27.72, 27.72, 27.72, 27.72, 27.72, 27.72, 28.16, 28.16, 28.61, 28.61, 29.06, 29.06, 29.5, 29.5, 29.95, 29.95, 29.95, 29.95, 29.95, 29.95, 29.95, 29.95, 29.95, 29.5, 29.5, 29.06, 28.61, 28.61, 28.16, 27.72, 27.72, 27.27, 26.82, 26.37, 25.48, 25.03, 24.59, 24.59, 24.14, 24.14, 23.69, 23.69, 23.69, 23.25, 23.25, 22.8, 22.8, 21.9, 20.56, 19.67, 19.22, 18.78, 17.88, 16.54, 16.54, 16.54, 16.09, 16.09, 15.65, 15.2, 14.75, 14.3, 14.3, 14.3, 14.3, 15.2, 15.65, 16.09, 16.09, 16.09, 16.09, 16.09, 26.37, 26.37, 26.37, 26.37, 26.37, 26.37, 26.37, 26.37, 26.37, 26.37, 26.37, 26.37, 26.82, 26.82, 27.72, 28.16, 28.16, 28.16, 28.16, 28.16, 28.16, 28.61, 28.61, 28.61, 28.61, 28.61, 28.61, 29.06, 29.06, 29.06, 29.06, 29.06, 29.06, 29.5, 29.5, 29.95, 29.95, 30.4, 30.4, 30.4, 30.84, 30.84, 30.84, 30.84, 30.4, 30.4, 30.4, 30.4, 29.95, 29.95, 29.5, 29.06, 29.06, 28.61, 28.16, 27.72, 27.72, 27.27, 26.82, 25.93, 25.48, 25.03, 24.59, 24.14, 24.14, 23.69, 23.69, 23.69, 23.69, 23.69, 23.69, 23.25, 22.35, 21.9, 21.01, 20.12, 19.67, 18.78, 17.88, 16.99, 16.54, 16.54, 16.09, 16.09, 15.65, 15.2, 14.75, 14.75, 14.3, 14.3, 14.75, 15.2, 15.65, 16.09, 16.54, 16.54, 16.09, 16.09, 27.27, 27.27, 27.27, 27.27, 27.27, 27.27, 27.27, 27.27, 27.27, 27.27, 27.27, 27.27, 27.72, 28.61, 28.61, 28.61, 29.06, 29.06, 29.06, 29.5, 29.5, 29.5, 29.5, 29.5, 29.95, 29.95, 29.95, 29.95, 29.95, 30.4, 30.4, 30.4, 30.4, 30.4, 30.4, 30.84, 30.84, 31.29, 31.29, 31.29, 31.29, 31.29, 31.29, 30.84, 30.84, 30.84, 30.4, 30.4, 29.95, 29.95, 29.5, 29.06, 29.06, 28.61, 28.16, 27.72, 27.27, 26.82, 26.82, 25.48, 25.03, 25.03, 24.59, 24.14, 23.69, 23.69, 23.69, 23.25, 23.25, 23.69, 23.69, 23.69, 22.8, 21.46, 21.01, 20.56, 20.12, 19.22, 17.88, 16.99, 16.99, 16.54, 16.09, 15.65, 15.2, 15.2, 14.75, 14.75, 14.3, 14.3, 14.75, 15.65, 16.09, 16.54, 16.54, 16.54, 16.54, 16.54, 27.72, 27.72, 27.72, 27.72, 27.72, 27.72, 27.72, 28.16, 28.16, 28.16, 28.16, 28.16, 29.06, 29.5, 29.5, 29.5, 29.95, 29.95, 30.4, 30.4, 30.4, 30.4, 30.84, 30.84, 30.84, 30.84, 30.84, 31.29, 31.29, 31.29, 31.29, 31.29, 31.29, 31.29, 31.29, 31.74, 31.74, 31.74, 31.74, 31.74, 31.74, 31.74, 31.29, 31.29, 30.84, 30.84, 30.4, 30.4, 29.95, 29.95, 29.5, 29.06, 28.61, 28.61, 28.16, 27.72, 27.27, 26.82, 25.93, 25.48, 25.03, 24.59, 24.59, 24.14, 23.69, 23.69, 23.25, 23.25, 23.25, 23.25, 23.69, 23.69, 23.25, 21.9, 21.01, 21.01, 20.56, 19.22, 18.33, 17.43, 16.99, 16.54, 16.09, 15.65, 15.2, 14.75, 14.75, 14.75, 14.3, 14.3, 15.2, 15.65, 16.09, 16.54, 16.54, 16.54, 16.99, 16.54, 28.16, 28.16, 28.16, 28.16, 28.16, 28.61, 28.61, 28.61, 28.61, 29.06, 29.06, 29.5, 29.95, 29.95, 30.4, 30.4, 30.4, 30.84, 30.84, 31.29, 31.29, 31.29, 31.74, 31.74, 31.74, 31.74, 32.19, 32.19, 32.19, 32.19, 32.19, 32.19, 32.19, 32.19, 32.19, 32.19, 32.19, 32.19, 32.19, 32.19, 31.74, 31.74, 31.74, 31.29, 30.84, 30.84, 30.4, 30.4, 29.95, 29.5, 29.5, 29.06, 28.61, 28.16, 27.72, 27.72, 27.27, 26.82, 25.93, 25.48, 25.03, 24.59, 24.14, 23.69, 23.69, 23.25, 23.25, 23.25, 23.25, 23.25, 23.69, 23.69, 23.69, 22.8, 21.01, 21.01, 21.01, 19.67, 18.78, 17.88, 17.43, 16.54, 15.65, 15.2, 14.75, 14.75, 14.3, 14.3, 14.3, 14.3, 15.2, 15.65, 16.09, 16.54, 16.54, 16.54, 16.99, 16.99, 28.61, 28.61, 28.61, 28.61, 28.61, 29.06, 29.06, 29.06, 29.5, 29.5, 29.95, 30.4, 30.4, 30.4, 30.84, 30.84, 31.29, 31.29, 31.74, 31.74, 32.19, 32.19, 32.19, 32.19, 32.63, 32.63, 32.63, 32.63, 32.63, 32.63, 32.63, 32.63, 32.63, 32.63, 32.63, 32.63, 32.19, 32.19, 32.19, 32.19, 31.74, 31.74, 31.29, 31.29, 30.84, 30.4, 30.4, 29.95, 29.95, 29.5, 29.06, 28.61, 28.61, 28.16, 27.72, 27.27, 26.82, 25.93, 25.48, 25.03, 24.59, 24.14, 24.14, 23.69, 23.69, 23.25, 23.25, 23.25, 22.8, 22.8, 23.25, 23.69, 23.69, 23.25, 22.35, 21.01, 21.01, 20.56, 19.22, 18.78, 17.88, 16.99, 15.65, 15.2, 14.75, 14.3, 14.3, 13.86, 13.86, 14.3, 14.75, 15.65, 16.09, 16.54, 16.54, 16.54, 16.99, 16.99, 28.61, 28.61, 28.61, 29.06, 29.06, 29.06, 29.5, 29.5, 29.95, 29.95, 30.4, 30.4, 30.84, 30.84, 31.29, 31.29, 31.74, 31.74, 32.19, 32.19, 32.63, 32.63, 32.63, 32.63, 32.63, 33.08, 33.08, 33.08, 33.08, 33.08, 33.08, 32.63, 32.63, 32.63, 32.63, 32.63, 32.19, 32.19, 32.19, 31.74, 31.74, 31.29, 31.29, 31.29, 30.4, 30.4, 29.95, 29.95, 29.5, 29.06, 29.06, 28.61, 28.16, 27.72, 27.27, 27.27, 26.82, 25.93, 25.48, 25.03, 24.59, 24.14, 23.69, 23.69, 23.25, 23.25, 23.25, 23.25, 22.8, 22.8, 23.25, 23.25, 23.69, 23.69, 23.25, 21.9, 20.56, 20.12, 20.12, 19.22, 18.33, 17.43, 16.09, 15.2, 14.75, 14.3, 13.86, 13.86, 13.86, 13.86, 14.75, 15.65, 16.09, 16.09, 16.54, 16.54, 16.99, 16.99, 28.61, 28.61, 28.61, 29.06, 29.06, 29.5, 29.5, 29.95, 29.95, 30.4, 30.4, 30.4, 30.84, 31.29, 31.29, 31.74, 31.74, 32.19, 32.19, 32.63, 32.63, 32.63, 32.63, 33.08, 33.08, 33.08, 33.08, 33.08, 33.08, 33.08, 33.08, 32.63, 32.63, 32.63, 32.19, 32.19, 32.19, 32.19, 31.74, 31.74, 31.29, 31.29, 30.84, 30.84, 30.4, 29.95, 29.95, 29.5, 29.5, 29.06, 28.61, 28.16, 28.16, 27.72, 27.27, 26.82, 25.93, 25.48, 25.03, 24.59, 24.59, 24.14, 23.69, 23.69, 23.25, 23.25, 23.25, 22.8, 22.8, 22.8, 23.25, 23.25, 23.69, 23.69, 23.69, 22.8, 21.46, 20.12, 20.12, 20.12, 19.22, 17.43, 16.09, 15.2, 14.75, 14.3, 13.86, 13.41, 13.41, 13.86, 14.75, 15.2, 15.65, 16.09, 16.54, 16.99, 16.99, 16.99, 28.61, 28.61, 28.61, 29.06, 29.06, 29.5, 29.5, 29.5, 29.95, 29.95, 30.4, 30.4, 30.84, 31.29, 31.29, 31.74, 31.74, 32.19, 32.19, 32.63, 32.63, 32.63, 32.63, 32.63, 33.08, 33.08, 33.08, 33.08, 33.08, 33.08, 32.63, 32.63, 32.19, 32.19, 32.19, 32.19, 31.74, 31.74, 31.74, 31.29, 31.29, 30.84, 30.84, 30.4, 30.4, 29.95, 29.5, 29.06, 29.06, 28.61, 28.16, 28.16, 27.72, 27.27, 26.82, 26.37, 25.93, 25.48, 25.03, 24.59, 24.14, 24.14, 23.69, 23.69, 23.25, 23.25, 23.25, 22.8, 22.8, 22.8, 23.25, 23.25, 23.69, 23.69, 23.69, 23.69, 22.8, 21.01, 20.12, 20.12, 19.67, 17.88, 16.54, 15.2, 14.3, 13.86, 13.41, 13.41, 13.41, 13.86, 14.75, 15.2, 15.65, 16.54, 16.54, 16.99, 16.99, 16.99, 28.61, 28.61, 28.61, 29.06, 29.06, 29.5, 29.5, 29.5, 29.5, 29.95, 29.95, 30.4, 30.84, 30.84, 31.29, 31.29, 31.74, 31.74, 32.19, 32.19, 32.19, 32.19, 32.63, 32.63, 32.63, 32.63, 32.63, 32.63, 32.63, 32.63, 32.19, 32.19, 32.19, 31.74, 31.74, 31.74, 31.74, 31.29, 31.29, 30.84, 30.84, 30.84, 30.4, 29.95, 29.95, 29.5, 29.06, 29.06, 28.61, 28.16, 28.16, 27.72, 27.27, 27.27, 26.82, 25.93, 25.48, 25.03, 24.59, 24.59, 24.14, 24.14, 23.69, 23.69, 23.25, 23.25, 23.25, 23.25, 23.25, 23.25, 23.25, 23.25, 23.69, 23.69, 23.69, 23.69, 23.25, 21.9, 20.56, 20.12, 19.67, 18.33, 16.99, 15.2, 14.3, 13.86, 13.41, 13.41, 13.41, 13.86, 14.75, 15.65, 16.09, 16.09, 16.54, 16.54, 16.54, 16.54, 28.16, 28.16, 28.61, 28.61, 29.06, 29.06, 29.06, 29.06, 29.5, 29.5, 29.95, 30.4, 30.4, 30.84, 30.84, 31.29, 31.29, 31.74, 31.74, 31.74, 32.19, 32.19, 32.19, 32.19, 32.19, 32.19, 32.19, 32.19, 32.19, 32.19, 31.74, 31.74, 31.74, 31.29, 31.29, 31.29, 31.29, 30.84, 30.84, 30.84, 30.4, 30.4, 29.95, 29.95, 29.5, 29.06, 29.06, 28.61, 28.16, 28.16, 27.72, 27.72, 27.27, 26.82, 26.37, 25.48, 25.48, 25.03, 24.59, 24.14, 24.14, 23.69, 23.69, 23.69, 23.25, 23.25, 23.25, 23.25, 23.25, 23.25, 23.25, 23.25, 23.69, 23.69, 23.69, 23.69, 23.25, 22.35, 21.46, 20.56, 19.67, 18.33, 16.99, 15.65, 14.3, 13.41, 12.96, 12.96, 13.41, 14.3, 15.2, 15.65, 16.09, 16.09, 16.54, 16.54, 16.54, 16.54, 28.16, 28.16, 28.16, 28.61, 28.61, 28.61, 28.61, 29.06, 29.06, 29.5, 29.5, 29.95, 29.95, 30.4, 30.84, 30.84, 31.29, 31.29, 31.29, 31.29, 31.74, 31.74, 31.74, 31.74, 31.74, 31.74, 32.19, 31.74, 31.74, 31.74, 31.29, 31.29, 31.29, 31.29, 30.84, 30.84, 30.84, 30.84, 30.4, 30.4, 29.95, 29.95, 29.5, 29.5, 29.06, 29.06, 28.61, 28.16, 28.16, 27.72, 27.72, 27.27, 26.82, 26.82, 25.93, 25.48, 25.03, 24.59, 24.59, 24.14, 24.14, 23.69, 23.69, 23.69, 23.69, 23.69, 23.25, 23.69, 23.69, 23.25, 23.69, 23.69, 23.69, 23.69, 23.69, 23.69, 23.25, 22.35, 21.9, 21.01, 20.12, 18.78, 16.99, 15.65, 14.3, 13.41, 12.96, 12.96, 13.41, 14.75, 15.2, 15.65, 15.65, 16.09, 16.09, 16.09, 16.09, 16.09, 27.72, 27.72, 28.16, 28.16, 28.16, 28.16, 28.61, 28.61, 29.06, 29.06, 29.5, 29.5, 29.95, 29.95, 30.4, 30.4, 30.84, 30.84, 30.84, 31.29, 31.29, 31.29, 31.29, 31.29, 31.29, 31.29, 31.74, 31.29, 31.29, 31.29, 30.84, 30.84, 30.84, 30.84, 30.84, 30.4, 30.4, 30.4, 29.95, 29.95, 29.95, 29.5, 29.5, 29.06, 28.61, 28.61, 28.16, 28.16, 27.72, 27.72, 27.27, 27.27, 26.82, 26.37, 25.48, 25.03, 25.03, 24.59, 24.59, 24.14, 24.14, 23.69, 23.69, 23.69, 23.69, 23.69, 23.69, 23.69, 23.69, 23.69, 23.69, 23.69, 23.69, 23.69, 23.69, 23.25, 23.25, 22.8, 21.9, 21.01, 20.56, 19.22, 17.43, 15.65, 14.3, 12.96, 12.52, 12.96, 14.3, 14.75, 15.2, 15.2, 15.65, 16.09, 16.09, 16.09, 16.09, 16.09, 27.72, 27.72, 27.72, 27.72, 27.72, 28.16, 28.16, 28.61, 28.61, 28.61, 29.06, 29.06, 29.5, 29.5, 29.95, 29.95, 30.4, 30.4, 30.4, 30.84, 30.84, 30.84, 30.84, 30.84, 30.84, 31.29, 31.29, 30.84, 30.84, 30.84, 30.84, 30.4, 30.4, 30.4, 30.4, 30.4, 29.95, 29.95, 29.95, 29.5, 29.5, 29.06, 29.06, 28.61, 28.61, 28.16, 28.16, 27.72, 27.72, 27.27, 27.27, 26.82, 26.37, 26.37, 25.48, 25.03, 25.03, 24.59, 24.14, 24.14, 24.14, 24.14, 23.69, 23.69, 24.14, 23.69, 23.69, 23.69, 23.69, 23.69, 23.69, 23.69, 23.69, 23.69, 23.69, 23.25, 23.25, 22.8, 21.9, 21.46, 20.56, 19.67, 18.33, 15.65, 13.86, 12.96, 12.52, 13.41, 13.86, 14.3, 14.75, 15.2, 15.65, 16.09, 16.09, 16.54, 16.54, 16.54, 27.27, 27.27, 27.27, 27.72, 27.72, 27.72, 28.16, 28.16, 28.16, 28.61, 28.61, 29.06, 29.06, 29.5, 29.5, 29.95, 29.95, 29.95, 30.4, 30.4, 30.4, 30.4, 30.4, 30.4, 30.84, 30.84, 30.84, 30.84, 30.4, 30.4, 30.4, 29.95, 29.95, 29.95, 29.95, 29.95, 29.95, 29.5, 29.5, 29.06, 29.06, 29.06, 28.61, 28.61, 28.16, 28.16, 27.72, 27.72, 27.27, 27.27, 26.82, 26.82, 26.37, 25.48, 25.48, 25.03, 24.59, 24.59, 24.14, 24.14, 24.14, 24.14, 24.14, 24.14, 24.14, 24.14, 23.69, 23.69, 23.69, 23.69, 23.69, 23.25, 23.25, 23.69, 23.25, 23.25, 22.8, 22.8, 22.35, 21.46, 20.56, 19.67, 18.78, 16.54, 13.86, 12.52, 12.52, 12.96, 13.41, 13.86, 14.3, 15.2, 15.65, 16.09, 16.54, 16.54, 16.54, 16.54, 27.27, 26.82, 27.27, 27.27, 27.27, 27.72, 27.72, 28.16, 28.16, 28.16, 28.61, 28.61, 29.06, 29.06, 29.06, 29.5, 29.5, 29.5, 29.95, 29.95, 29.95, 29.95, 29.95, 30.4, 30.4, 30.4, 30.4, 30.4, 29.95, 29.95, 29.95, 29.95, 29.95, 29.5, 29.5, 29.5, 29.5, 29.5, 29.06, 29.06, 28.61, 28.61, 28.16, 28.16, 28.16, 27.72, 27.72, 27.27, 27.27, 26.82, 26.82, 26.37, 25.93, 25.48, 25.03, 25.03, 24.59, 24.59, 24.14, 24.14, 24.14, 24.14, 24.14, 24.14, 24.14, 24.14, 24.14, 23.69, 23.69, 23.69, 23.69, 23.25, 23.25, 23.25, 23.25, 23.25, 22.8, 22.35, 21.9, 21.46, 21.01, 20.12, 19.22, 17.43, 13.41, 12.96, 12.52, 13.41, 13.86, 13.41, 13.86, 14.75, 15.65, 16.09, 16.54, 16.54, 16.54, 16.54, 26.82, 26.82, 26.82, 27.27, 27.27, 27.27, 27.72, 27.72, 27.72, 28.16, 28.16, 28.61, 28.61, 28.61, 29.06, 29.06, 29.06, 29.5, 29.5, 29.5, 29.5, 29.5, 29.95, 29.95, 29.95, 29.95, 29.95, 29.95, 29.95, 29.5, 29.5, 29.5, 29.5, 29.5, 29.5, 29.06, 29.06, 29.06, 28.61, 28.61, 28.61, 28.16, 28.16, 28.16, 27.72, 27.72, 27.27, 27.27, 26.82, 26.82, 26.37, 26.37, 25.93, 25.48, 25.03, 25.03, 24.59, 24.59, 24.14, 24.14, 24.14, 24.14, 24.14, 24.14, 24.14, 24.14, 24.14, 24.14, 23.69, 23.69, 23.25, 23.25, 23.25, 23.25, 23.25, 23.25, 22.8, 22.35, 21.9, 21.46, 21.01, 20.12, 19.67, 14.75, 13.41, 12.96, 12.96, 13.41, 13.86, 13.86, 13.86, 14.75, 15.65, 16.54, 16.54, 16.54, 16.54, 16.54, 26.37, 26.37, 26.82, 26.82, 27.27, 27.27, 27.27, 27.72, 27.72, 27.72, 28.16, 28.16, 28.16, 28.61, 28.61, 28.61, 29.06, 29.06, 29.06, 29.06, 29.5, 29.5, 29.5, 29.5, 29.5, 29.5, 29.5, 29.5, 29.5, 29.5, 29.5, 29.06, 29.06, 29.06, 29.06, 29.06, 29.06, 28.61, 28.61, 28.16, 28.16, 28.16, 27.72, 27.72, 27.72, 27.27, 27.27, 26.82, 26.82, 26.82, 26.37, 25.93, 25.48, 25.48, 25.03, 24.59, 24.59, 24.59, 24.14, 24.14, 24.14, 24.14, 24.14, 24.14, 24.14, 24.14, 24.14, 23.69, 23.69, 23.69, 23.25, 23.25, 23.25, 22.8, 22.8, 22.8, 22.8, 22.35, 21.9, 21.46, 21.01, 20.56, 17.88, 14.75, 13.41, 12.96, 12.52, 13.41, 13.86, 13.86, 14.3, 14.75, 16.09, 16.54, 16.54, 16.54, 16.54, 16.54, 26.37, 26.37, 26.37, 26.82, 26.82, 27.27, 27.27, 27.27, 27.27, 27.72, 27.72, 27.72, 28.16, 28.16, 28.16, 28.61, 28.61, 28.61, 29.06, 29.06, 29.06, 29.06, 29.06, 29.06, 29.06, 29.5, 29.5, 29.5, 29.06, 29.06, 29.06, 29.06, 29.06, 29.06, 28.61, 28.61, 28.61, 28.61, 28.16, 28.16, 28.16, 27.72, 27.72, 27.72, 27.27, 27.27, 27.27, 26.82, 26.82, 26.37, 26.37, 25.93, 25.48, 25.03, 25.03, 24.59, 24.59, 24.59, 24.59, 24.14, 24.14, 24.14, 24.14, 24.14, 24.14, 24.14, 23.69, 23.69, 23.69, 23.25, 23.25, 23.25, 22.8, 22.8, 22.8, 22.8, 22.8, 22.35, 21.9, 21.46, 21.01, 20.56, 18.33, 14.75, 12.52, 12.52, 12.52, 12.96, 13.86, 14.3, 14.75, 15.2, 16.09, 16.54, 16.54, 16.54, 16.54, 16.54, 26.37, 26.37, 26.37, 26.82, 26.82, 26.82, 26.82, 27.27, 27.27, 27.27, 27.72, 27.72, 27.72, 28.16, 28.16, 28.16, 28.16, 28.61, 28.61, 28.61, 28.61, 28.61, 29.06, 29.06, 29.06, 29.06, 29.06, 29.06, 29.06, 29.06, 28.61, 28.61, 28.61, 28.61, 28.61, 28.61, 28.16, 28.16, 28.16, 28.16, 27.72, 27.72, 27.72, 27.27, 27.27, 27.27, 26.82, 26.82, 26.37, 26.37, 25.93, 25.93, 25.48, 25.03, 25.03, 24.59, 24.59, 24.59, 24.14, 24.14, 24.14, 24.14, 24.14, 24.14, 23.69, 23.69, 23.69, 23.69, 23.69, 23.25, 23.25, 22.8, 22.8, 22.8, 22.35, 22.35, 22.35, 22.35, 21.9, 21.46, 21.01, 19.67, 18.78, 15.65, 12.52, 12.07, 12.96, 12.96, 13.41, 14.3, 14.75, 15.65, 16.09, 16.54, 16.54, 16.54, 16.54, 16.54, 25.93, 25.93, 26.37, 26.37, 26.37, 26.82, 26.82, 26.82, 27.27, 27.27, 27.27, 27.27, 27.72, 27.72, 27.72, 28.16, 28.16, 28.16, 28.16, 28.61, 28.61, 28.61, 28.61, 28.61, 28.61, 28.61, 28.61, 28.61, 28.61, 28.61, 28.61, 28.61, 28.61, 28.61, 28.16, 28.16, 28.16, 28.16, 27.72, 27.72, 27.72, 27.72, 27.27, 27.27, 27.27, 26.82, 26.82, 26.37, 26.37, 25.93, 25.93, 25.48, 25.03, 25.03, 24.59, 24.59, 24.59, 24.14, 24.14, 24.14, 24.14, 24.14, 24.14, 23.69, 23.69, 23.69, 23.69, 23.25, 23.25, 23.25, 22.8, 22.8, 22.8, 22.8, 22.35, 22.35, 21.9, 21.9, 21.9, 21.46, 20.56, 20.12, 19.22, 16.99, 13.41, 12.52, 12.96, 12.96, 13.41, 13.86, 14.75, 15.65, 16.09, 16.54, 16.99, 16.54, 16.54, 16.54, 25.93, 25.93, 25.93, 26.37, 26.37, 26.37, 26.82, 26.82, 26.82, 26.82, 27.27, 27.27, 27.27, 27.72, 27.72, 27.72, 27.72, 28.16, 28.16, 28.16, 28.16, 28.16, 28.16, 28.61, 28.61, 28.61, 28.61, 28.61, 28.61, 28.61, 28.16, 28.16, 28.16, 28.16, 28.16, 28.16, 28.16, 27.72, 27.72, 27.72, 27.27, 27.27, 27.27, 26.82, 26.82, 26.82, 26.37, 26.37, 25.93, 25.93, 25.48, 25.03, 25.03, 24.59, 24.59, 24.59, 24.14, 24.14, 24.14, 24.14, 24.14, 23.69, 23.69, 23.69, 23.69, 23.69, 23.25, 23.25, 23.25, 23.25, 22.8, 22.8, 22.8, 22.35, 22.35, 21.9, 21.9, 21.9, 21.46, 21.01, 20.56, 20.12, 19.22, 17.88, 14.75, 12.96, 13.41, 12.96, 12.96, 13.41, 14.75, 15.2, 16.09, 16.54, 16.99, 16.99, 16.99, 16.99, 25.93, 25.93, 25.93, 25.93, 26.37, 26.37, 26.37, 26.82, 26.82, 26.82, 26.82, 27.27, 27.27, 27.27, 27.27, 27.72, 27.72, 27.72, 27.72, 28.16, 28.16, 28.16, 28.16, 28.16, 28.16, 28.16, 28.16, 28.16, 28.16, 28.16, 28.16, 28.16, 28.16, 28.16, 28.16, 27.72, 27.72, 27.72, 27.27, 27.27, 27.27, 27.27, 26.82, 26.82, 26.82, 26.37, 26.37, 25.93, 25.93, 25.48, 25.48, 25.03, 24.59, 24.59, 24.59, 24.14, 24.14, 24.14, 24.14, 23.69, 23.69, 23.69, 23.69, 23.25, 23.25, 23.25, 23.25, 23.25, 22.8, 22.8, 22.8, 22.8, 22.35, 22.35, 22.35, 21.9, 21.9, 21.46, 21.46, 21.01, 20.56, 20.12, 19.67, 18.33, 16.09, 14.3, 13.86, 13.41, 12.96, 13.41, 14.3, 15.2, 16.09, 16.54, 16.54, 16.99, 16.99, 16.99, 25.48, 25.48, 25.93, 25.93, 25.93, 26.37, 26.37, 26.37, 26.37, 26.82, 26.82, 26.82, 26.82, 27.27, 27.27, 27.27, 27.27, 27.72, 27.72, 27.72, 27.72, 27.72, 27.72, 28.16, 28.16, 28.16, 28.16, 28.16, 28.16, 28.16, 28.16, 27.72, 27.72, 27.72, 27.72, 27.72, 27.27, 27.27, 27.27, 26.82, 26.82, 26.82, 26.82, 26.37, 26.37, 26.37, 25.93, 25.93, 25.48, 25.48, 25.03, 24.59, 24.59, 24.59, 24.14, 24.14, 24.14, 24.14, 23.69, 23.69, 23.69, 23.25, 23.25, 23.25, 23.25, 23.25, 22.8, 22.8, 22.8, 22.8, 22.8, 22.35, 22.35, 22.35, 21.9, 21.9, 21.9, 21.46, 21.01, 21.01, 20.56, 20.56, 19.67, 18.78, 17.43, 15.2, 14.3, 13.41, 12.96, 13.41, 13.86, 15.2, 16.09, 16.54, 16.54, 16.99, 16.99, 16.99, 25.48, 25.48, 25.48, 25.93, 25.93, 25.93, 26.37, 26.37, 26.37, 26.37, 26.82, 26.82, 26.82, 26.82, 27.27, 27.27, 27.27, 27.27, 27.27, 27.72, 27.72, 27.72, 27.72, 27.72, 27.72, 27.72, 27.72, 27.72, 27.72, 27.72, 27.72, 27.72, 27.72, 27.27, 27.27, 27.27, 27.27, 26.82, 26.82, 26.82, 26.37, 26.37, 26.37, 26.37, 25.93, 25.93, 25.48, 25.48, 25.48, 25.03, 24.59, 24.59, 24.59, 24.14, 24.14, 24.14, 23.69, 23.69, 23.69, 23.69, 23.25, 23.25, 23.25, 22.8, 22.8, 22.8, 22.8, 22.8, 22.8, 22.35, 22.35, 22.35, 22.35, 22.35, 21.9, 21.9, 21.9, 21.46, 21.01, 21.01, 20.56, 20.56, 20.12, 19.22, 17.88, 16.54, 15.2, 13.86, 13.41, 13.41, 13.86, 15.2, 16.09, 16.54, 16.99, 16.99, 16.99, 16.99, 25.48, 25.48, 25.48, 25.93, 25.93, 25.93, 26.37, 26.37, 26.37, 26.37, 26.82, 26.82, 26.82, 26.82, 27.27, 27.27, 27.27, 27.27, 27.27, 27.72, 27.72, 27.72, 27.72, 27.72, 27.72, 27.72, 27.72, 27.72, 27.72, 27.72, 27.72, 27.72, 27.72, 27.27, 27.27, 27.27, 27.27, 26.82, 26.82, 26.82, 26.37, 26.37, 26.37, 26.37, 25.93, 25.93, 25.48, 25.48, 25.48, 25.03, 24.59, 24.59, 24.59, 24.14, 24.14, 24.14, 23.69, 23.69, 23.69, 23.69, 23.25, 23.25, 23.25, 22.8, 22.8, 22.8, 22.8, 22.8, 22.8, 22.35, 22.35, 22.35, 22.35, 22.35, 21.9, 21.9, 21.46, 21.46, 21.01, 21.01, 20.56, 20.56, 20.12, 19.22, 18.33, 17.43, 16.09, 14.75, 13.86, 13.41, 14.3, 15.2, 16.09, 16.54, 16.99, 16.99, 16.99, 16.99]}, {"header": {"parameterCategory": 1, "parameterNumber": 3, "dx": 0.06612293990616946, "dy": 0.0552356325346848, "nx": 98, "ny": 59, "la1": 35.046912555036876, "la2": 31.78801023549047, "lo1": -121.43107172385933, "lo2": -114.95102361305473, "refTime": "2026041115"}, "data": [-6.71, -6.71, -6.26, -6.26, -5.81, -5.36, -5.36, -4.92, -4.92, -4.47, -4.47, -4.02, -4.02, -4.02, -4.02, -4.02, -4.02, -3.58, -3.58, -3.58, -3.13, -3.13, -2.68, -2.68, -2.24, -2.24, -1.79, -1.79, -1.34, -0.89, -0.45, -0.45, -0.45, 0.0, 0.0, 0.45, 0.89, 1.34, 1.79, 2.24, 2.68, 2.68, 3.13, 3.58, 4.02, 4.47, 4.92, 5.36, 5.81, 6.26, 7.15, 7.6, 8.49, 8.94, 9.39, 10.28, 10.73, 11.62, 12.07, 12.52, 12.96, 13.41, 13.86, 14.75, 15.2, 15.65, 16.54, 16.99, 17.43, 17.88, 17.88, 18.33, 18.33, 18.78, 18.78, 18.78, 18.78, 19.22, 19.22, 19.67, 19.67, 19.67, 19.67, 19.67, 19.67, 19.67, 19.67, 19.22, 19.22, 19.22, 19.22, 19.22, 19.22, 19.22, 19.22, 19.22, 19.22, 19.22, -6.71, -6.71, -6.26, -6.26, -5.81, -5.81, -5.36, -5.36, -4.92, -4.47, -4.47, -4.47, -4.02, -4.02, -4.02, -4.02, -4.02, -4.02, -3.58, -3.58, -3.58, -3.13, -2.68, -2.68, -2.24, -2.24, -2.24, -1.79, -1.34, -0.89, -0.45, -0.45, 0.0, 0.0, 0.0, 0.45, 0.45, 0.89, 1.34, 1.79, 2.24, 2.68, 3.13, 3.58, 4.02, 4.47, 4.92, 5.36, 6.26, 6.71, 7.15, 8.05, 8.49, 8.94, 9.83, 10.28, 11.18, 11.62, 12.07, 12.52, 12.96, 13.41, 13.86, 14.75, 15.2, 16.09, 16.54, 16.99, 17.43, 17.88, 17.88, 18.33, 18.33, 18.33, 18.78, 18.78, 19.22, 19.22, 19.22, 19.67, 19.67, 19.67, 19.67, 19.67, 19.67, 19.67, 19.67, 19.22, 19.22, 19.22, 19.22, 19.22, 19.22, 19.22, 19.22, 19.22, 19.22, 19.22, -7.15, -6.71, -6.71, -6.26, -6.26, -5.81, -5.36, -5.36, -4.92, -4.92, -4.47, -4.47, -4.47, -4.02, -4.02, -4.02, -4.02, -4.02, -4.02, -3.58, -3.58, -3.13, -3.13, -2.68, -2.24, -2.24, -2.24, -1.79, -1.79, -1.34, -0.89, -0.45, 0.0, 0.0, 0.45, 0.89, 0.89, 1.34, 1.34, 1.79, 1.79, 2.68, 3.13, 3.58, 4.02, 4.47, 5.36, 5.81, 6.26, 7.15, 7.6, 8.05, 8.94, 9.39, 10.28, 10.73, 11.18, 11.62, 12.52, 12.96, 12.96, 13.41, 13.86, 14.3, 15.2, 16.09, 16.54, 16.99, 17.43, 17.88, 17.88, 18.33, 18.33, 18.78, 18.78, 19.22, 19.22, 19.22, 19.22, 19.22, 19.67, 19.67, 19.67, 19.22, 19.22, 19.22, 19.22, 19.22, 19.22, 18.78, 19.22, 19.22, 19.22, 19.22, 19.22, 19.22, 19.22, 19.22, -7.15, -6.71, -6.71, -6.26, -6.26, -5.81, -5.81, -5.36, -5.36, -4.92, -4.92, -4.47, -4.47, -4.47, -4.47, -4.47, -4.02, -4.02, -4.02, -4.02, -3.58, -3.58, -3.13, -3.13, -2.68, -2.24, -1.79, -1.79, -1.79, -1.79, -1.34, -0.89, -0.45, 0.0, 0.45, 1.34, 1.79, 2.24, 2.24, 2.24, 2.24, 2.68, 3.58, 4.02, 4.47, 4.92, 5.81, 6.26, 6.71, 7.6, 8.05, 8.49, 9.39, 9.83, 10.28, 11.18, 11.62, 12.07, 12.52, 12.96, 12.96, 13.41, 13.86, 14.75, 15.65, 16.09, 16.54, 16.99, 17.43, 17.88, 17.88, 18.33, 18.78, 19.22, 19.22, 19.22, 19.22, 19.22, 19.22, 19.22, 19.22, 19.22, 19.22, 19.22, 19.22, 19.22, 18.78, 18.78, 18.78, 18.78, 18.78, 18.78, 18.78, 18.78, 18.78, 18.78, 18.78, 18.78, -7.15, -7.15, -6.71, -6.71, -6.26, -6.26, -5.81, -5.36, -5.36, -4.92, -4.92, -4.92, -4.47, -4.47, -4.47, -4.47, -4.47, -4.47, -4.02, -4.02, -4.02, -3.58, -3.58, -3.13, -3.13, -2.68, -1.79, -1.34, -1.34, -1.34, -1.34, -1.34, -0.89, -0.45, 0.0, 0.45, 1.34, 2.24, 2.68, 2.68, 3.13, 3.13, 4.02, 4.47, 5.36, 5.81, 6.26, 7.15, 7.6, 8.05, 8.49, 8.94, 9.83, 10.28, 10.73, 11.18, 11.62, 12.07, 12.52, 12.96, 12.96, 13.41, 14.3, 15.2, 15.65, 16.54, 16.54, 16.99, 16.99, 17.43, 17.43, 17.88, 18.33, 19.22, 19.22, 19.22, 19.22, 18.78, 18.78, 19.22, 19.22, 19.22, 19.22, 18.78, 18.78, 18.78, 18.33, 18.33, 18.33, 18.33, 18.33, 18.33, 18.33, 18.33, 18.33, 18.33, 18.33, 18.33, -7.6, -7.15, -7.15, -6.71, -6.26, -6.26, -5.81, -5.81, -5.36, -5.36, -4.92, -4.92, -4.92, -4.47, -4.47, -4.47, -4.47, -4.47, -4.47, -4.02, -4.02, -4.02, -3.58, -3.58, -3.13, -2.68, -2.24, -1.79, -1.34, -0.89, -0.89, -0.89, -0.89, -0.45, 0.0, 0.0, 0.89, 1.79, 2.68, 3.13, 3.58, 3.58, 4.02, 4.92, 5.81, 6.26, 7.15, 7.6, 8.05, 8.49, 8.94, 9.39, 9.83, 10.28, 10.73, 11.18, 11.62, 12.07, 12.52, 12.96, 13.41, 13.86, 14.75, 15.2, 15.65, 16.09, 16.54, 16.99, 16.99, 16.99, 16.99, 17.43, 17.88, 18.33, 18.78, 18.78, 18.78, 18.78, 18.78, 19.22, 19.22, 18.78, 18.78, 18.78, 18.33, 18.33, 18.33, 18.33, 18.33, 18.33, 18.33, 18.33, 18.33, 18.33, 18.33, 17.88, 17.88, 17.88, -7.6, -7.15, -7.15, -6.71, -6.71, -6.26, -6.26, -5.81, -5.81, -5.36, -5.36, -4.92, -4.92, -4.92, -4.47, -4.47, -4.47, -4.47, -4.47, -4.47, -4.47, -4.02, -4.02, -3.58, -3.58, -3.13, -2.68, -2.24, -1.79, -1.34, -0.45, -0.45, -0.45, 0.0, 0.0, 0.45, 0.89, 1.34, 2.24, 3.13, 3.58, 3.58, 4.02, 4.47, 5.36, 5.81, 6.71, 7.6, 8.05, 8.49, 8.94, 9.39, 9.83, 10.28, 10.73, 11.18, 11.62, 12.07, 12.52, 13.41, 13.86, 14.3, 15.2, 15.65, 15.65, 16.09, 16.09, 16.54, 16.99, 17.43, 17.43, 17.88, 17.88, 17.88, 18.33, 18.33, 18.78, 18.78, 18.78, 18.33, 18.78, 18.78, 18.33, 18.33, 18.33, 18.33, 17.88, 17.88, 17.88, 17.88, 17.88, 17.88, 17.88, 17.88, 17.88, 17.88, 17.88, 17.88, -8.05, -7.6, -7.15, -7.15, -6.71, -6.71, -6.26, -5.81, -5.81, -5.36, -5.36, -5.36, -4.92, -4.92, -4.92, -4.47, -4.47, -4.47, -4.47, -4.47, -4.47, -4.47, -4.02, -4.02, -3.58, -3.13, -3.13, -2.68, -2.24, -1.79, -0.89, -0.45, 0.0, 0.0, 0.45, 0.89, 0.89, 1.34, 1.79, 2.24, 3.13, 4.02, 4.47, 4.47, 4.92, 5.36, 5.81, 6.26, 7.15, 8.05, 8.49, 8.94, 9.39, 9.83, 10.28, 11.18, 11.62, 12.52, 13.41, 13.86, 14.3, 14.75, 15.2, 15.65, 15.65, 16.09, 16.09, 16.54, 16.99, 17.88, 18.33, 18.33, 18.33, 18.33, 18.33, 18.33, 18.33, 18.33, 18.33, 18.33, 18.33, 18.33, 18.33, 18.33, 17.88, 17.88, 17.88, 17.88, 17.88, 17.88, 17.88, 17.88, 17.43, 17.43, 17.43, 17.88, 17.88, 17.88, -8.05, -7.6, -7.6, -7.15, -6.71, -6.71, -6.26, -6.26, -5.81, -5.81, -5.36, -5.36, -4.92, -4.92, -4.92, -4.92, -4.92, -4.47, -4.47, -4.47, -4.47, -4.47, -4.47, -4.02, -3.58, -3.58, -3.13, -2.68, -2.24, -2.24, -1.34, -0.89, 0.0, 0.0, 0.45, 0.89, 1.34, 1.79, 1.79, 2.24, 3.13, 3.58, 4.47, 4.92, 4.92, 5.36, 5.81, 5.81, 6.26, 6.71, 7.6, 8.49, 9.39, 9.83, 10.73, 11.18, 12.07, 12.96, 13.86, 14.3, 14.3, 14.75, 15.2, 15.65, 15.65, 16.09, 16.54, 16.99, 17.43, 18.33, 18.33, 18.78, 18.78, 18.33, 18.33, 18.33, 17.88, 17.88, 17.88, 17.88, 17.88, 17.88, 17.88, 17.88, 17.88, 17.43, 17.43, 17.43, 17.88, 17.88, 17.88, 17.43, 17.43, 17.43, 17.43, 17.43, 17.43, 17.43, -8.05, -8.05, -7.6, -7.15, -7.15, -6.71, -6.71, -6.26, -6.26, -5.81, -5.81, -5.36, -5.36, -4.92, -4.92, -4.92, -4.92, -4.92, -4.47, -4.47, -4.47, -4.47, -4.47, -4.02, -4.02, -3.58, -3.13, -2.68, -2.68, -2.24, -1.79, -0.89, -0.45, 0.0, 0.45, 0.89, 1.34, 1.79, 2.24, 2.24, 3.13, 3.58, 4.47, 4.92, 5.36, 5.81, 6.26, 6.26, 6.26, 6.71, 7.15, 7.6, 8.94, 9.83, 10.73, 11.62, 12.52, 13.41, 13.86, 14.3, 14.3, 14.75, 15.2, 15.65, 16.09, 16.09, 16.54, 17.43, 17.88, 18.33, 18.33, 18.33, 18.33, 17.88, 17.88, 17.88, 17.88, 17.43, 17.43, 17.43, 17.43, 17.43, 17.88, 17.88, 17.43, 17.43, 17.43, 17.43, 17.43, 17.88, 17.43, 17.43, 17.43, 17.43, 17.43, 17.43, 17.43, 17.43, -8.49, -8.05, -8.05, -7.6, -7.15, -7.15, -6.71, -6.71, -6.26, -6.26, -5.81, -5.81, -5.36, -5.36, -4.92, -4.92, -4.92, -4.92, -4.92, -4.47, -4.47, -4.47, -4.02, -4.02, -4.02, -3.58, -3.13, -2.68, -2.24, -1.79, -1.34, -0.89, -0.45, 0.0, 0.45, 0.89, 1.34, 1.79, 2.24, 2.68, 3.58, 4.02, 4.47, 5.36, 5.81, 6.26, 6.71, 6.71, 6.71, 7.15, 7.15, 7.6, 8.49, 8.94, 9.83, 10.73, 11.62, 12.96, 13.41, 13.86, 14.3, 14.75, 15.2, 15.65, 16.09, 16.54, 16.54, 16.99, 17.43, 17.88, 18.33, 17.88, 17.88, 17.43, 17.43, 17.43, 17.43, 17.43, 17.43, 17.43, 16.99, 16.99, 16.99, 17.43, 17.43, 17.43, 17.43, 17.43, 17.43, 17.43, 17.43, 17.43, 17.43, 17.43, 17.43, 17.43, 17.43, 17.43, -8.49, -8.49, -8.05, -7.6, -7.6, -7.15, -7.15, -6.71, -6.71, -6.26, -6.26, -5.81, -5.81, -5.36, -5.36, -4.92, -4.92, -4.92, -4.92, -4.92, -4.47, -4.47, -4.02, -4.02, -3.58, -3.58, -3.13, -2.68, -2.24, -1.79, -1.34, -0.89, 0.0, 0.0, 0.45, 0.89, 1.34, 1.79, 2.68, 3.13, 3.58, 4.47, 4.92, 5.36, 6.26, 6.71, 6.71, 7.15, 7.6, 7.6, 8.05, 8.49, 8.49, 8.94, 8.94, 9.39, 9.83, 10.73, 12.07, 13.41, 14.3, 14.75, 15.65, 16.09, 16.09, 16.54, 16.09, 16.09, 16.54, 16.99, 17.43, 17.43, 17.43, 16.99, 16.99, 17.43, 17.43, 17.43, 17.43, 17.43, 16.99, 16.99, 16.99, 16.99, 16.99, 17.43, 17.43, 17.43, 17.43, 17.43, 17.43, 17.43, 17.43, 17.43, 17.43, 17.43, 16.99, 16.99, -8.94, -8.49, -8.05, -8.05, -7.6, -7.6, -7.15, -7.15, -6.71, -6.71, -6.26, -6.26, -5.81, -5.81, -5.36, -5.36, -5.36, -4.92, -4.92, -4.92, -4.47, -4.47, -4.02, -4.02, -3.58, -3.13, -3.13, -2.68, -2.24, -1.79, -0.89, -0.45, 0.0, 0.0, 0.45, 0.89, 1.34, 2.24, 2.68, 3.58, 4.02, 4.47, 5.36, 5.81, 6.26, 6.71, 7.15, 7.6, 8.05, 8.05, 8.49, 9.39, 9.83, 9.83, 10.28, 10.28, 10.73, 11.18, 12.07, 12.96, 14.3, 15.2, 15.65, 15.65, 16.09, 16.09, 16.09, 15.65, 14.75, 15.2, 16.09, 16.99, 16.99, 16.99, 16.99, 17.43, 17.43, 17.43, 17.43, 16.99, 16.99, 16.99, 16.54, 16.54, 16.54, 16.99, 16.99, 17.43, 17.43, 17.43, 17.43, 17.88, 17.88, 17.88, 17.43, 17.43, 16.99, 16.99, -8.94, -8.94, -8.49, -8.05, -8.05, -7.6, -7.6, -7.15, -7.15, -6.71, -6.71, -6.26, -6.26, -5.81, -5.81, -5.36, -5.36, -5.36, -4.92, -4.92, -4.92, -4.47, -4.47, -4.02, -3.58, -3.13, -2.68, -2.68, -2.24, -1.34, -0.89, -0.45, 0.0, 0.0, 0.89, 1.34, 1.79, 2.68, 3.13, 4.02, 4.47, 4.92, 5.36, 5.81, 6.26, 6.71, 7.6, 8.05, 8.49, 8.94, 9.39, 9.83, 10.73, 11.62, 12.07, 12.52, 12.96, 12.96, 12.96, 13.86, 14.3, 15.2, 15.65, 15.65, 16.09, 16.99, 16.99, 16.99, 16.09, 15.65, 15.65, 16.54, 16.54, 16.54, 16.99, 17.43, 17.43, 17.43, 16.99, 16.99, 16.99, 16.99, 16.99, 16.99, 16.54, 16.54, 16.54, 16.99, 16.99, 17.43, 17.43, 17.43, 17.88, 17.88, 17.88, 17.43, 17.43, 16.99, -9.39, -8.94, -8.49, -8.49, -8.05, -8.05, -7.6, -7.15, -7.15, -7.15, -6.71, -6.71, -6.26, -6.26, -5.81, -5.81, -5.36, -5.36, -5.36, -4.92, -4.92, -4.47, -4.47, -4.02, -3.58, -3.13, -2.68, -2.24, -1.79, -1.34, -0.89, -0.45, 0.0, 0.45, 0.89, 1.34, 2.24, 2.68, 3.13, 4.02, 4.47, 4.92, 5.36, 5.81, 6.26, 6.71, 7.6, 8.05, 8.49, 8.94, 9.83, 10.28, 11.18, 12.07, 12.96, 13.41, 14.3, 14.75, 14.75, 14.75, 15.2, 15.65, 16.54, 16.54, 17.43, 17.88, 18.33, 18.33, 18.33, 17.88, 17.43, 16.99, 16.54, 16.99, 16.99, 17.43, 17.43, 17.43, 16.99, 16.99, 16.99, 16.99, 16.99, 16.99, 16.54, 16.54, 16.09, 16.54, 16.54, 16.99, 16.99, 17.43, 17.43, 17.88, 17.88, 17.43, 17.43, 17.43, -9.39, -8.94, -8.94, -8.49, -8.49, -8.05, -7.6, -7.6, -7.15, -7.15, -7.15, -6.71, -6.71, -6.26, -6.26, -5.81, -5.81, -5.36, -5.36, -4.92, -4.92, -4.47, -4.47, -4.02, -3.58, -3.13, -2.68, -2.24, -1.79, -1.34, -0.89, -0.45, 0.0, 0.45, 0.89, 1.79, 2.24, 2.68, 3.13, 4.02, 4.47, 4.92, 5.36, 5.81, 6.26, 7.15, 7.6, 8.05, 8.49, 9.39, 9.83, 10.73, 11.18, 12.07, 12.96, 13.41, 14.3, 15.2, 16.09, 16.09, 16.09, 16.54, 17.43, 17.88, 18.33, 18.78, 19.22, 19.67, 19.67, 19.22, 18.78, 17.88, 17.43, 17.43, 17.43, 17.43, 16.99, 16.99, 16.99, 16.99, 16.99, 16.99, 16.99, 16.54, 16.54, 16.54, 16.54, 16.09, 16.54, 16.54, 16.54, 17.43, 17.43, 17.88, 17.88, 17.88, 17.43, 17.43, -9.39, -9.39, -8.94, -8.94, -8.49, -8.05, -8.05, -7.6, -7.6, -7.15, -7.15, -7.15, -6.71, -6.71, -6.26, -6.26, -5.81, -5.81, -5.36, -5.36, -4.92, -4.47, -4.47, -4.02, -3.58, -3.13, -2.68, -2.24, -1.79, -1.34, -0.89, -0.45, 0.0, 0.45, 0.89, 1.79, 2.24, 2.68, 3.58, 4.02, 4.47, 4.92, 5.36, 5.81, 6.71, 7.15, 7.6, 8.05, 8.94, 9.39, 10.28, 11.18, 11.62, 12.07, 12.52, 13.41, 14.3, 15.65, 16.54, 16.54, 16.54, 16.99, 17.43, 17.88, 18.78, 19.22, 19.67, 19.67, 19.67, 19.67, 19.67, 19.22, 18.33, 17.88, 17.43, 17.43, 16.99, 16.09, 16.09, 16.09, 16.54, 16.54, 16.09, 16.09, 16.09, 16.09, 16.54, 16.54, 16.54, 16.09, 16.54, 16.99, 17.43, 17.43, 17.43, 17.88, 17.43, 17.43, -9.39, -9.39, -8.94, -8.94, -8.49, -8.49, -8.05, -8.05, -7.6, -7.6, -7.15, -7.15, -6.71, -6.71, -6.71, -6.26, -6.26, -5.81, -5.81, -5.36, -4.92, -4.92, -4.47, -4.02, -3.58, -3.13, -2.68, -2.24, -1.79, -1.34, -0.89, 0.0, 0.0, 0.45, 1.34, 1.79, 2.24, 3.13, 3.58, 4.02, 4.47, 4.92, 5.81, 6.26, 6.71, 7.15, 7.6, 8.49, 8.94, 9.39, 10.28, 11.18, 11.62, 12.52, 12.96, 13.41, 14.3, 15.2, 16.09, 16.54, 16.54, 16.99, 17.43, 17.88, 18.33, 18.78, 18.78, 19.22, 19.67, 19.67, 19.67, 19.67, 18.78, 18.33, 17.88, 17.43, 16.99, 16.09, 15.65, 15.65, 15.65, 15.65, 15.65, 15.2, 15.65, 15.65, 16.09, 16.09, 16.09, 16.09, 16.09, 16.54, 16.99, 16.99, 16.99, 17.43, 17.43, 17.43, -9.83, -9.39, -9.39, -8.94, -8.94, -8.49, -8.49, -8.05, -8.05, -7.6, -7.6, -7.15, -7.15, -6.71, -6.71, -6.26, -6.26, -5.81, -5.81, -5.36, -4.92, -4.92, -4.47, -4.02, -3.58, -3.13, -2.68, -2.24, -1.79, -1.34, -0.45, 0.0, 0.0, 0.89, 1.34, 1.79, 2.68, 3.13, 3.58, 4.02, 4.92, 5.36, 5.81, 6.26, 6.71, 7.15, 8.05, 8.49, 8.94, 9.83, 10.28, 10.73, 11.62, 12.07, 12.96, 13.86, 14.3, 15.2, 15.65, 16.09, 16.54, 16.99, 16.99, 17.43, 17.88, 18.33, 18.33, 18.78, 19.22, 19.67, 19.67, 19.67, 19.22, 18.33, 17.88, 17.43, 17.43, 16.54, 16.09, 15.2, 15.2, 15.2, 15.2, 15.2, 15.2, 15.2, 15.65, 15.65, 16.09, 16.09, 16.09, 16.09, 16.54, 16.54, 16.99, 16.99, 16.99, 16.99, -9.83, -9.39, -9.39, -8.94, -8.94, -8.49, -8.49, -8.05, -8.05, -7.6, -7.6, -7.15, -7.15, -7.15, -6.71, -6.71, -6.26, -6.26, -5.81, -5.36, -5.36, -4.92, -4.47, -4.02, -3.58, -3.13, -2.68, -2.24, -1.79, -0.89, -0.45, 0.0, 0.0, 0.89, 1.34, 1.79, 2.68, 3.13, 3.58, 4.47, 4.92, 5.36, 5.81, 6.26, 6.71, 7.6, 8.05, 8.49, 9.39, 9.83, 10.73, 11.18, 11.62, 12.52, 12.96, 13.86, 14.3, 15.2, 15.65, 16.09, 16.54, 16.99, 16.99, 17.43, 17.43, 17.88, 17.88, 18.33, 18.78, 19.22, 19.67, 19.67, 19.22, 18.78, 17.88, 17.88, 17.88, 17.43, 16.09, 15.2, 15.2, 15.2, 15.2, 15.2, 15.2, 15.2, 15.65, 15.65, 16.09, 16.09, 16.09, 16.09, 16.09, 16.54, 16.54, 16.54, 16.54, 16.54, -9.83, -9.83, -9.39, -9.39, -8.94, -8.94, -8.49, -8.49, -8.05, -8.05, -7.6, -7.6, -7.15, -7.15, -6.71, -6.71, -6.26, -6.26, -5.81, -5.36, -5.36, -4.92, -4.47, -4.02, -3.58, -3.13, -2.68, -2.24, -1.34, -0.89, -0.45, 0.0, 0.45, 0.89, 1.34, 2.24, 2.68, 3.13, 4.02, 4.47, 4.92, 5.36, 5.81, 6.26, 7.15, 7.6, 8.05, 8.94, 9.39, 10.28, 10.73, 11.62, 12.07, 12.96, 13.41, 13.86, 14.75, 15.2, 15.65, 16.09, 16.54, 16.54, 16.99, 16.99, 17.43, 17.43, 17.88, 18.33, 18.33, 18.78, 19.22, 19.22, 19.22, 18.78, 17.88, 17.88, 17.43, 16.99, 16.09, 15.65, 15.2, 14.75, 14.75, 15.2, 15.2, 15.2, 15.65, 15.65, 15.65, 15.65, 16.09, 16.09, 16.09, 16.09, 16.54, 16.09, 16.54, 16.54, -9.83, -9.83, -9.39, -9.39, -8.94, -8.94, -8.49, -8.49, -8.05, -8.05, -7.6, -7.6, -7.15, -7.15, -6.71, -6.71, -6.26, -6.26, -5.81, -5.36, -5.36, -4.92, -4.47, -4.02, -3.58, -3.13, -2.68, -2.24, -1.34, -0.89, -0.45, 0.0, 0.45, 0.89, 1.34, 2.24, 2.68, 3.58, 4.02, 4.47, 4.92, 5.81, 6.26, 6.71, 7.15, 8.05, 8.49, 8.94, 9.83, 10.28, 11.18, 11.62, 12.52, 12.96, 13.86, 14.3, 14.75, 15.2, 15.65, 16.09, 16.09, 16.54, 16.54, 16.99, 16.99, 17.43, 17.88, 17.88, 17.88, 18.33, 18.33, 18.33, 17.88, 17.88, 17.43, 17.43, 16.99, 16.54, 16.09, 15.65, 15.2, 14.75, 14.75, 14.75, 15.2, 15.2, 15.2, 15.2, 15.65, 15.65, 16.09, 16.09, 16.09, 16.09, 16.09, 16.09, 16.09, 16.09, -9.83, -9.83, -9.83, -9.39, -8.94, -8.94, -8.49, -8.49, -8.05, -8.05, -7.6, -7.6, -7.15, -7.15, -7.15, -6.71, -6.71, -6.26, -5.81, -5.81, -5.36, -4.92, -4.47, -4.02, -3.58, -3.13, -2.68, -2.24, -1.34, -0.89, -0.45, 0.0, 0.45, 0.89, 1.79, 2.24, 2.68, 3.58, 4.02, 4.47, 5.36, 5.81, 6.26, 6.71, 7.6, 8.05, 8.94, 9.39, 9.83, 10.73, 11.18, 12.07, 12.52, 13.41, 13.86, 14.3, 14.3, 14.75, 15.2, 15.65, 16.09, 16.09, 16.54, 16.54, 16.99, 16.99, 17.43, 17.43, 17.88, 18.33, 18.33, 18.33, 16.54, 16.99, 17.43, 16.99, 16.99, 16.54, 16.09, 15.65, 15.65, 15.2, 14.75, 14.75, 14.75, 15.2, 15.2, 15.2, 15.2, 15.2, 16.09, 16.09, 16.09, 16.09, 16.09, 16.09, 15.65, 15.65, -9.83, -9.83, -9.83, -9.83, -8.94, -8.94, -8.49, -8.49, -8.05, -8.05, -7.6, -7.6, -7.15, -7.15, -7.15, -6.71, -6.26, -6.26, -5.81, -5.36, -5.36, -4.92, -4.47, -4.02, -3.58, -3.13, -2.68, -2.24, -1.34, -0.89, 0.0, 0.0, 0.45, 1.34, 1.79, 2.24, 3.13, 3.58, 4.02, 4.92, 5.36, 5.81, 6.26, 7.15, 7.6, 8.49, 8.94, 9.39, 10.28, 10.73, 11.62, 12.07, 12.96, 13.41, 13.86, 14.3, 14.3, 14.75, 14.75, 15.2, 15.65, 16.09, 16.09, 16.54, 16.54, 16.99, 16.99, 17.43, 17.43, 17.88, 18.33, 18.33, 16.99, 16.54, 16.54, 16.99, 16.54, 16.54, 16.09, 15.65, 15.65, 15.65, 15.2, 15.2, 15.2, 15.2, 15.2, 15.2, 15.2, 15.2, 15.65, 16.09, 16.09, 16.09, 16.09, 16.09, 15.65, 15.65, -9.83, -9.83, -9.83, -9.83, -9.39, -9.39, -8.94, -8.49, -8.05, -8.05, -7.6, -7.6, -7.15, -7.15, -6.71, -6.71, -6.26, -6.26, -5.81, -5.36, -5.36, -4.92, -4.47, -4.02, -3.58, -3.13, -2.68, -1.79, -1.34, -0.89, 0.0, 0.0, 0.89, 1.34, 1.79, 2.68, 3.13, 3.58, 4.47, 4.92, 5.36, 5.81, 6.71, 7.15, 7.6, 8.49, 9.39, 9.83, 10.28, 11.18, 11.62, 12.52, 12.96, 13.41, 13.86, 14.3, 14.75, 14.75, 14.75, 14.75, 14.75, 15.65, 16.09, 16.09, 16.54, 16.54, 16.54, 16.99, 16.99, 17.88, 18.33, 18.78, 17.43, 16.09, 15.65, 16.09, 16.54, 16.09, 15.65, 15.65, 15.2, 15.65, 15.65, 15.2, 15.2, 15.2, 15.2, 15.2, 15.2, 14.75, 14.75, 15.65, 16.09, 16.09, 16.09, 16.09, 15.65, 15.65, -9.83, -9.83, -9.83, -9.83, -9.39, -9.39, -8.94, -8.49, -8.05, -8.05, -7.6, -7.6, -7.15, -7.15, -6.71, -6.71, -6.26, -5.81, -5.81, -5.36, -4.92, -4.47, -4.02, -3.58, -3.13, -2.68, -2.24, -1.79, -1.34, -0.45, 0.0, 0.45, 0.89, 1.34, 2.24, 2.68, 3.13, 4.02, 4.47, 4.92, 5.81, 6.26, 6.71, 7.6, 8.05, 8.94, 9.39, 10.28, 10.73, 11.62, 12.07, 12.52, 12.96, 13.41, 13.86, 14.3, 14.75, 14.75, 15.2, 15.2, 14.75, 15.2, 15.65, 15.65, 16.09, 16.09, 16.54, 16.54, 16.99, 16.99, 17.43, 17.88, 17.43, 16.09, 15.2, 15.2, 15.65, 15.65, 15.65, 15.2, 15.2, 15.2, 15.65, 15.2, 15.2, 14.75, 14.75, 14.75, 15.2, 15.2, 14.75, 15.2, 15.65, 16.09, 16.09, 16.09, 15.65, 15.65, -9.83, -9.83, -9.83, -9.83, -9.39, -9.39, -8.94, -8.94, -8.05, -8.05, -7.6, -7.6, -7.15, -7.15, -6.71, -6.26, -6.26, -5.81, -5.36, -5.36, -4.92, -4.47, -4.02, -3.58, -3.13, -2.68, -2.24, -1.79, -0.89, -0.45, 0.0, 0.45, 1.34, 1.79, 2.24, 3.13, 3.58, 4.02, 4.92, 5.36, 6.26, 6.71, 7.15, 7.6, 8.49, 8.94, 9.83, 10.28, 11.18, 11.62, 12.07, 12.96, 13.41, 13.86, 13.86, 14.3, 14.3, 14.75, 15.2, 15.2, 15.2, 14.75, 15.2, 15.2, 15.65, 15.65, 16.09, 16.54, 16.54, 16.54, 16.99, 16.99, 17.43, 16.54, 15.65, 14.3, 14.3, 14.75, 15.2, 15.2, 15.2, 15.2, 15.65, 15.65, 15.2, 15.2, 14.75, 14.75, 14.75, 15.2, 15.2, 14.75, 15.2, 15.65, 16.09, 16.09, 15.65, 15.65, -9.83, -9.83, -9.83, -9.83, -9.39, -9.39, -8.94, -8.94, -8.49, -8.05, -7.6, -7.6, -7.15, -6.71, -6.71, -6.26, -5.81, -5.81, -5.36, -4.92, -4.92, -4.47, -4.02, -3.58, -3.13, -2.68, -2.24, -1.34, -0.89, 0.0, 0.0, 0.45, 1.34, 1.79, 2.68, 3.13, 3.58, 4.47, 4.92, 5.81, 6.26, 6.71, 7.6, 8.05, 8.94, 9.83, 10.28, 10.73, 11.18, 11.62, 12.52, 12.96, 13.41, 13.86, 13.86, 14.3, 14.3, 14.75, 14.75, 14.75, 15.2, 15.2, 15.2, 15.2, 15.2, 15.65, 15.65, 16.09, 16.09, 16.54, 16.54, 16.54, 16.54, 16.54, 15.65, 14.75, 13.86, 13.86, 14.75, 15.2, 15.65, 15.65, 15.65, 15.65, 15.2, 15.2, 15.2, 14.75, 14.75, 15.2, 15.2, 14.75, 14.75, 14.75, 15.2, 15.2, 15.2, 15.2, -9.83, -9.83, -9.83, -9.83, -9.39, -9.39, -8.94, -8.94, -8.49, -8.05, -7.6, -7.15, -7.15, -6.71, -6.26, -6.26, -5.81, -5.36, -5.36, -4.92, -4.47, -4.02, -3.58, -3.13, -2.68, -2.24, -1.79, -1.34, -0.45, 0.0, 0.0, 0.89, 1.34, 1.79, 2.68, 3.13, 4.02, 4.47, 5.36, 5.81, 6.71, 7.15, 8.05, 8.49, 9.39, 9.83, 10.73, 11.18, 11.62, 12.07, 12.52, 12.96, 13.41, 13.41, 13.86, 13.86, 14.3, 14.3, 14.75, 14.75, 14.75, 14.75, 14.75, 15.2, 15.2, 15.2, 15.65, 15.65, 16.09, 16.09, 16.09, 15.65, 15.65, 16.09, 16.09, 15.65, 14.3, 13.41, 13.86, 14.3, 15.2, 15.65, 15.65, 15.2, 15.2, 15.2, 15.2, 15.2, 15.2, 15.2, 15.2, 14.75, 14.75, 14.3, 14.3, 14.75, 14.75, 14.75, -9.83, -9.83, -9.83, -9.83, -9.39, -9.39, -8.94, -8.94, -8.49, -8.05, -8.05, -7.15, -7.15, -6.71, -6.26, -5.81, -5.81, -5.36, -4.92, -4.47, -4.47, -4.02, -3.13, -2.68, -2.24, -1.79, -1.34, -0.89, -0.45, 0.0, 0.45, 0.89, 1.34, 2.24, 2.68, 3.58, 4.02, 4.92, 5.36, 6.26, 6.71, 7.6, 8.05, 8.94, 9.39, 9.83, 10.73, 11.18, 11.62, 12.07, 12.52, 12.96, 12.96, 13.41, 13.41, 13.86, 13.86, 14.3, 14.3, 14.3, 14.3, 14.75, 14.75, 14.75, 15.2, 15.2, 15.2, 15.2, 15.2, 15.65, 15.65, 15.65, 15.2, 15.2, 15.65, 15.65, 14.75, 14.3, 13.41, 13.41, 14.3, 15.2, 15.2, 15.2, 15.2, 15.2, 15.2, 15.65, 15.2, 15.2, 15.2, 14.75, 14.75, 14.3, 14.3, 14.3, 14.3, 14.3, -9.83, -9.83, -9.83, -9.83, -9.39, -9.39, -8.94, -8.94, -8.49, -8.05, -8.05, -7.6, -6.71, -6.71, -6.26, -5.81, -5.36, -5.36, -4.92, -4.47, -4.02, -3.58, -3.13, -2.68, -2.24, -1.79, -1.34, -0.89, 0.0, 0.0, 0.45, 0.89, 1.79, 2.24, 3.13, 3.58, 4.47, 4.92, 5.81, 6.26, 7.15, 7.6, 8.49, 8.94, 9.83, 10.28, 10.73, 11.18, 11.62, 12.07, 12.52, 12.52, 12.96, 13.41, 13.41, 13.41, 13.86, 13.86, 14.3, 14.3, 14.3, 14.3, 14.75, 14.75, 15.2, 15.2, 15.2, 15.2, 14.75, 14.75, 15.2, 15.2, 15.2, 14.75, 15.2, 15.2, 14.75, 14.3, 13.86, 12.96, 12.96, 14.3, 14.75, 14.75, 14.75, 15.2, 15.2, 15.2, 15.2, 15.2, 15.2, 15.2, 14.75, 14.3, 13.86, 13.86, 13.86, 13.86, -9.83, -9.83, -9.83, -9.39, -9.39, -9.39, -8.94, -8.49, -8.49, -8.05, -7.6, -7.6, -7.15, -6.71, -6.26, -5.81, -5.36, -4.92, -4.47, -4.02, -3.58, -3.13, -2.68, -2.68, -1.79, -1.34, -0.89, -0.45, 0.0, 0.0, 0.89, 1.34, 1.79, 2.68, 3.13, 4.02, 4.47, 5.36, 5.81, 6.71, 7.15, 8.05, 8.49, 9.39, 9.83, 10.28, 10.73, 11.18, 11.62, 11.62, 12.07, 12.52, 12.52, 12.96, 12.96, 13.41, 13.41, 13.86, 13.86, 13.86, 14.3, 14.3, 14.3, 14.75, 14.75, 15.2, 15.2, 15.2, 15.2, 14.75, 14.75, 14.75, 15.2, 14.75, 14.3, 14.3, 14.75, 14.3, 13.86, 12.96, 12.96, 12.96, 13.86, 13.86, 14.3, 14.3, 14.75, 15.2, 15.2, 15.2, 15.2, 15.2, 14.75, 14.3, 13.86, 13.86, 13.86, 13.86, -9.83, -9.83, -9.83, -9.39, -9.39, -8.94, -8.94, -8.49, -8.49, -8.05, -7.6, -7.6, -7.15, -6.71, -6.26, -5.81, -5.36, -4.92, -4.47, -4.02, -3.58, -3.13, -2.68, -2.24, -1.79, -1.34, -0.89, -0.45, 0.0, 0.45, 0.89, 1.79, 2.24, 3.13, 3.58, 4.47, 4.92, 5.81, 6.26, 7.15, 7.6, 8.05, 8.94, 9.39, 9.83, 10.28, 10.73, 11.18, 11.18, 11.62, 12.07, 12.07, 12.52, 12.52, 12.52, 12.96, 12.96, 13.41, 13.41, 13.86, 13.86, 13.86, 14.3, 14.3, 14.3, 14.75, 14.75, 15.2, 15.2, 14.75, 14.3, 14.3, 14.75, 14.75, 14.3, 13.86, 13.86, 13.86, 13.41, 12.96, 12.96, 12.52, 12.96, 13.41, 13.86, 13.86, 14.3, 14.75, 14.75, 15.2, 15.2, 15.2, 14.75, 14.3, 13.86, 13.86, 13.41, 13.41, -9.83, -9.83, -9.39, -9.39, -9.39, -8.94, -8.94, -8.49, -8.49, -8.05, -7.6, -7.15, -7.15, -6.71, -5.81, -5.36, -4.92, -4.47, -4.02, -3.58, -3.58, -3.13, -2.68, -1.79, -1.34, -0.89, -0.45, 0.0, 0.0, 0.89, 1.34, 1.79, 2.68, 3.13, 4.02, 4.47, 5.36, 5.81, 6.71, 7.15, 7.6, 8.49, 8.94, 9.39, 9.83, 10.28, 10.73, 10.73, 11.18, 11.62, 11.62, 12.07, 12.07, 12.07, 12.52, 12.52, 12.52, 12.96, 13.41, 13.41, 13.86, 13.86, 13.86, 13.86, 14.3, 14.3, 14.3, 14.75, 14.75, 14.75, 14.3, 13.86, 13.86, 14.3, 14.3, 13.86, 13.41, 13.86, 13.41, 13.41, 12.96, 12.52, 12.52, 12.96, 13.41, 13.86, 13.86, 14.3, 14.75, 14.75, 14.75, 14.75, 14.3, 14.3, 13.86, 13.86, 13.41, 13.41, -9.39, -9.39, -9.39, -9.39, -8.94, -8.94, -8.49, -8.49, -8.05, -8.05, -7.6, -7.15, -6.71, -6.71, -5.81, -5.36, -4.92, -4.47, -4.02, -3.58, -3.13, -2.68, -2.24, -1.79, -1.34, -0.45, 0.0, 0.0, 0.45, 0.89, 1.79, 2.24, 3.13, 3.58, 4.47, 4.92, 5.36, 6.26, 6.71, 7.6, 8.05, 8.49, 8.94, 9.39, 9.83, 10.28, 10.28, 10.73, 10.73, 11.18, 11.18, 11.62, 11.62, 12.07, 12.07, 12.52, 12.52, 12.52, 12.96, 12.96, 13.41, 13.41, 13.41, 13.86, 13.86, 13.86, 13.86, 14.3, 14.3, 14.3, 14.3, 13.86, 13.86, 13.86, 14.3, 13.86, 13.41, 13.41, 13.41, 13.41, 12.96, 12.96, 12.96, 12.96, 12.96, 13.41, 13.86, 13.86, 14.3, 14.3, 14.3, 14.3, 14.3, 13.86, 13.86, 13.41, 13.41, 13.41, -9.39, -9.39, -8.94, -8.94, -8.94, -8.49, -8.49, -8.05, -8.05, -7.6, -7.15, -7.15, -6.71, -5.81, -5.81, -5.36, -4.47, -4.02, -3.58, -3.13, -2.68, -2.24, -1.79, -1.34, -0.89, -0.45, 0.0, 0.45, 0.89, 1.34, 2.24, 2.68, 3.13, 4.02, 4.47, 5.36, 5.81, 6.26, 7.15, 7.6, 8.05, 8.49, 8.94, 9.39, 9.83, 9.83, 10.28, 10.28, 10.73, 10.73, 11.18, 11.18, 11.62, 11.62, 12.07, 12.07, 12.07, 12.52, 12.52, 12.96, 12.96, 13.41, 13.41, 13.41, 13.41, 13.86, 13.86, 13.86, 13.86, 14.3, 14.3, 13.86, 13.86, 13.86, 13.86, 13.41, 12.96, 12.96, 12.96, 12.96, 12.96, 12.52, 12.96, 12.96, 12.96, 12.96, 13.41, 13.86, 13.86, 13.86, 13.86, 13.86, 13.86, 13.86, 13.41, 13.41, 12.96, 12.96, -8.94, -8.94, -8.49, -8.49, -8.49, -8.05, -8.05, -8.05, -7.6, -7.6, -7.15, -6.71, -6.26, -5.81, -5.36, -4.92, -4.02, -3.58, -3.58, -3.13, -2.68, -1.79, -1.34, -0.89, -0.45, 0.0, 0.0, 0.89, 1.34, 1.79, 2.24, 3.13, 3.58, 4.02, 4.92, 5.36, 5.81, 6.71, 7.15, 7.6, 8.05, 8.49, 8.94, 9.39, 9.39, 9.83, 9.83, 10.28, 10.28, 10.73, 10.73, 11.18, 11.18, 11.62, 11.62, 11.62, 12.07, 12.07, 12.52, 12.52, 12.52, 12.52, 12.96, 12.96, 13.41, 13.41, 13.41, 13.41, 13.41, 13.86, 13.86, 13.86, 13.86, 13.41, 13.41, 13.41, 12.96, 12.52, 12.52, 12.52, 12.07, 12.07, 12.52, 12.52, 12.52, 12.96, 12.96, 13.41, 13.86, 13.86, 13.86, 13.86, 13.41, 13.41, 13.41, 12.96, 12.96, 12.96, -8.49, -8.49, -8.05, -8.05, -8.05, -7.6, -7.6, -7.6, -7.15, -7.15, -6.71, -5.81, -5.81, -5.36, -4.92, -4.47, -4.02, -3.58, -3.13, -2.68, -2.24, -1.79, -0.89, -0.45, 0.0, 0.0, 0.45, 0.89, 1.79, 2.24, 2.68, 3.13, 4.02, 4.47, 4.92, 5.81, 6.26, 6.71, 7.15, 7.6, 8.05, 8.49, 8.94, 8.94, 9.39, 9.83, 9.83, 9.83, 10.28, 10.28, 10.73, 10.73, 11.18, 11.18, 11.18, 11.62, 11.62, 11.62, 12.07, 12.07, 12.07, 12.52, 12.52, 12.96, 12.96, 12.96, 12.96, 12.96, 12.96, 13.41, 13.41, 13.86, 13.86, 13.41, 12.96, 12.96, 12.96, 12.96, 12.52, 12.07, 11.62, 11.62, 11.62, 12.07, 12.52, 12.52, 12.96, 13.41, 13.41, 13.41, 13.41, 13.41, 13.41, 12.96, 12.96, 12.96, 12.52, 12.96, -7.6, -7.6, -7.6, -7.6, -7.6, -7.15, -7.15, -7.15, -6.71, -6.71, -5.81, -5.36, -5.36, -4.92, -4.47, -4.02, -4.02, -3.58, -2.68, -2.24, -1.79, -1.34, -0.89, 0.0, 0.0, 0.45, 0.89, 1.34, 1.79, 2.68, 3.13, 3.58, 4.02, 4.92, 5.36, 5.81, 6.26, 6.71, 7.15, 7.6, 8.05, 8.05, 8.49, 8.94, 8.94, 9.39, 9.39, 9.83, 9.83, 10.28, 10.28, 10.73, 10.73, 10.73, 11.18, 11.18, 11.18, 11.62, 11.62, 12.07, 12.07, 12.07, 12.07, 12.07, 12.52, 12.52, 12.96, 12.96, 12.96, 12.96, 13.41, 13.41, 13.86, 13.86, 13.41, 12.52, 12.52, 12.96, 12.52, 12.07, 11.62, 11.18, 11.62, 11.62, 12.07, 12.52, 12.52, 12.96, 13.41, 13.41, 13.41, 12.96, 12.96, 12.96, 12.96, 12.52, 12.52, 12.52, -7.15, -7.15, -7.15, -7.15, -6.71, -6.71, -6.71, -6.26, -6.26, -5.36, -4.92, -4.92, -4.47, -4.47, -4.02, -3.58, -3.58, -3.13, -2.24, -1.79, -1.34, -0.89, -0.45, 0.0, 0.45, 0.89, 1.34, 1.79, 2.24, 2.68, 3.58, 4.02, 4.47, 4.92, 5.36, 5.81, 6.26, 6.71, 7.15, 7.6, 7.6, 8.05, 8.49, 8.49, 8.94, 8.94, 9.39, 9.39, 9.83, 9.83, 10.28, 10.28, 10.73, 10.73, 10.73, 10.73, 11.18, 11.18, 11.62, 11.62, 11.62, 11.62, 12.07, 12.07, 12.07, 12.07, 12.52, 12.52, 12.52, 12.96, 12.96, 13.41, 13.86, 13.86, 13.86, 12.96, 12.07, 12.52, 12.52, 12.07, 11.62, 11.18, 11.18, 11.18, 11.62, 12.07, 12.52, 12.52, 12.96, 12.96, 12.96, 12.52, 12.52, 12.52, 12.52, 12.52, 12.07, 12.07, -6.71, -6.71, -6.71, -6.71, -6.26, -6.26, -5.81, -5.81, -4.92, -4.92, -4.47, -4.47, -4.02, -3.58, -3.58, -3.13, -2.68, -2.68, -2.24, -1.34, -0.89, -0.45, 0.0, 0.0, 0.45, 1.34, 1.79, 2.24, 2.68, 3.13, 3.58, 4.02, 4.47, 4.92, 5.36, 5.81, 6.26, 6.71, 6.71, 7.15, 7.6, 8.05, 8.05, 8.49, 8.94, 8.94, 8.94, 9.39, 9.39, 9.83, 9.83, 10.28, 10.28, 10.28, 10.73, 10.73, 10.73, 11.18, 11.18, 11.18, 11.62, 11.62, 11.62, 11.62, 11.62, 12.07, 12.07, 12.52, 12.52, 12.52, 12.96, 12.96, 13.41, 13.86, 13.86, 13.41, 12.52, 12.07, 12.07, 12.07, 11.62, 11.18, 10.73, 10.73, 11.18, 11.62, 12.07, 12.07, 12.52, 12.52, 12.07, 12.07, 12.07, 12.07, 12.07, 11.62, 11.62, 11.62, -6.26, -6.26, -6.26, -5.81, -5.81, -5.81, -5.36, -4.47, -4.47, -4.02, -4.02, -3.58, -3.58, -3.13, -3.13, -2.68, -2.24, -2.24, -1.79, -0.89, -0.45, 0.0, 0.0, 0.45, 0.89, 1.34, 1.79, 2.24, 2.68, 3.58, 4.02, 4.47, 4.92, 4.92, 5.36, 5.81, 6.26, 6.71, 6.71, 7.15, 7.6, 7.6, 8.05, 8.49, 8.49, 8.94, 8.94, 8.94, 9.39, 9.39, 9.83, 9.83, 9.83, 10.28, 10.28, 10.28, 10.73, 10.73, 10.73, 11.18, 11.18, 11.18, 11.62, 11.62, 11.62, 11.62, 11.62, 12.07, 12.52, 12.52, 12.52, 12.96, 12.96, 13.41, 13.41, 13.86, 13.41, 12.52, 11.62, 11.62, 11.62, 11.18, 10.73, 10.73, 10.73, 11.18, 11.18, 11.62, 12.07, 11.62, 11.62, 11.62, 11.62, 11.62, 11.62, 11.18, 11.18, 11.18, -5.81, -5.81, -5.81, -5.36, -5.36, -4.92, -4.47, -4.02, -4.02, -3.58, -3.58, -3.13, -3.13, -2.68, -2.24, -2.24, -1.79, -1.34, -1.34, -0.45, 0.0, 0.0, 0.45, 0.89, 1.34, 1.79, 2.24, 2.68, 3.13, 3.58, 4.02, 4.47, 4.92, 4.92, 5.36, 5.81, 6.26, 6.26, 6.71, 7.15, 7.15, 7.6, 7.6, 8.05, 8.49, 8.49, 8.49, 8.94, 8.94, 9.39, 9.39, 9.39, 9.83, 9.83, 9.83, 10.28, 10.28, 10.73, 10.73, 10.73, 11.18, 11.18, 11.18, 11.18, 11.62, 11.62, 11.62, 12.07, 12.07, 12.52, 12.52, 12.52, 12.96, 12.96, 13.41, 13.41, 13.41, 12.96, 12.07, 11.62, 11.62, 11.18, 10.73, 10.28, 10.28, 10.73, 11.18, 11.18, 11.18, 11.18, 11.18, 11.18, 11.18, 11.18, 11.18, 10.73, 10.73, 10.73, -5.36, -5.36, -5.36, -4.92, -4.92, -4.02, -4.02, -3.58, -3.58, -3.13, -3.13, -2.68, -2.24, -2.24, -1.79, -1.79, -1.34, -0.89, -0.89, -0.45, 0.0, 0.45, 0.89, 1.34, 1.79, 1.79, 2.24, 2.68, 3.13, 3.58, 4.02, 4.47, 4.92, 4.92, 5.36, 5.81, 5.81, 6.26, 6.71, 6.71, 7.15, 7.15, 7.6, 8.05, 8.05, 8.49, 8.49, 8.49, 8.94, 8.94, 8.94, 9.39, 9.39, 9.39, 9.83, 10.28, 10.28, 10.28, 10.73, 10.73, 10.73, 10.73, 11.18, 11.18, 11.18, 11.62, 11.62, 11.62, 12.07, 12.07, 12.52, 12.52, 12.52, 12.96, 12.96, 12.96, 12.96, 12.96, 12.52, 12.07, 11.62, 11.18, 10.73, 10.28, 10.28, 10.28, 10.73, 10.73, 11.18, 10.73, 11.18, 11.18, 10.73, 10.73, 10.73, 10.73, 10.73, 10.73, -4.92, -4.92, -4.92, -4.47, -4.02, -4.02, -3.58, -3.58, -3.13, -2.68, -2.68, -2.24, -2.24, -1.79, -1.34, -1.34, -0.89, -0.45, -0.45, 0.0, 0.45, 0.89, 0.89, 1.34, 1.79, 2.24, 2.68, 3.13, 3.58, 4.02, 4.02, 4.47, 4.92, 4.92, 5.36, 5.36, 5.81, 6.26, 6.26, 6.71, 6.71, 7.15, 7.6, 7.6, 8.05, 8.05, 8.05, 8.49, 8.49, 8.49, 8.94, 8.94, 9.39, 9.39, 9.83, 9.83, 9.83, 10.28, 10.28, 10.28, 10.73, 10.73, 10.73, 11.18, 11.18, 11.18, 11.62, 11.62, 11.62, 12.07, 12.07, 12.52, 12.52, 12.52, 12.52, 12.52, 12.96, 12.52, 12.52, 12.07, 11.62, 11.18, 10.73, 10.28, 10.28, 10.28, 10.28, 10.73, 10.73, 10.73, 10.73, 10.73, 10.73, 10.73, 10.28, 10.73, 10.73, 10.73, -4.92, -4.92, -4.47, -4.02, -3.58, -3.58, -3.13, -3.13, -2.68, -2.68, -2.24, -1.79, -1.79, -1.34, -1.34, -0.89, -0.45, 0.0, 0.0, 0.0, 0.45, 0.89, 1.34, 1.79, 1.79, 2.24, 2.68, 3.13, 3.58, 4.02, 4.02, 4.47, 4.47, 4.92, 5.36, 5.36, 5.81, 5.81, 6.26, 6.26, 6.71, 7.15, 7.15, 7.6, 7.6, 8.05, 8.05, 8.05, 8.49, 8.49, 8.49, 8.94, 8.94, 8.94, 9.39, 9.83, 9.83, 9.83, 10.28, 10.28, 10.28, 10.73, 10.73, 10.73, 11.18, 11.18, 11.62, 11.62, 11.62, 12.07, 12.07, 12.07, 12.07, 12.07, 12.52, 12.52, 12.52, 12.52, 12.07, 12.07, 11.62, 11.62, 10.73, 10.28, 9.83, 9.83, 10.28, 10.28, 10.73, 10.73, 10.73, 10.28, 10.28, 10.28, 10.28, 10.28, 10.28, 10.28, -4.47, -4.47, -4.02, -3.58, -3.58, -3.13, -3.13, -2.68, -2.68, -2.24, -1.79, -1.79, -1.34, -1.34, -0.89, -0.45, -0.45, 0.0, 0.0, 0.45, 0.45, 1.34, 1.34, 1.79, 2.24, 2.24, 2.68, 3.13, 3.58, 3.58, 4.02, 4.47, 4.47, 4.92, 4.92, 5.36, 5.36, 5.81, 5.81, 6.26, 6.71, 6.71, 7.15, 7.15, 7.6, 7.6, 7.6, 8.05, 8.05, 8.05, 8.49, 8.49, 8.94, 8.94, 9.39, 9.39, 9.83, 9.83, 9.83, 10.28, 10.28, 10.28, 10.73, 10.73, 11.18, 11.18, 11.18, 11.18, 11.62, 11.62, 11.62, 12.07, 12.07, 12.07, 12.07, 12.07, 12.07, 12.07, 12.07, 12.07, 11.62, 11.62, 10.73, 9.83, 9.39, 9.83, 10.28, 10.28, 10.28, 10.28, 10.28, 10.28, 10.28, 10.28, 10.28, 10.28, 10.28, 10.28, -4.02, -4.02, -3.58, -3.58, -3.13, -3.13, -2.68, -2.68, -2.24, -2.24, -1.79, -1.34, -1.34, -0.89, -0.45, -0.45, 0.0, 0.0, 0.0, 0.45, 0.89, 1.34, 1.34, 1.79, 2.24, 2.24, 2.68, 3.13, 3.58, 3.58, 4.02, 4.02, 4.47, 4.47, 4.92, 4.92, 5.36, 5.81, 5.81, 6.26, 6.26, 6.71, 6.71, 7.15, 7.15, 7.6, 7.6, 7.6, 8.05, 8.05, 8.05, 8.49, 8.49, 8.94, 8.94, 9.39, 9.39, 9.83, 9.83, 9.83, 10.28, 10.28, 10.73, 10.73, 11.18, 11.18, 11.18, 11.18, 11.18, 11.18, 11.62, 11.62, 11.62, 12.07, 12.07, 12.07, 12.07, 12.07, 12.07, 12.07, 11.62, 11.62, 11.18, 10.28, 9.39, 9.83, 9.83, 10.28, 9.83, 9.83, 10.28, 10.28, 10.28, 10.28, 10.28, 10.28, 10.28, 10.28, -4.02, -3.58, -3.58, -3.13, -3.13, -2.68, -2.68, -2.24, -2.24, -1.79, -1.79, -1.34, -0.89, -0.89, -0.45, 0.0, 0.0, 0.0, 0.45, 0.45, 0.89, 0.89, 1.79, 1.79, 2.24, 2.68, 2.68, 3.13, 3.58, 3.58, 4.02, 4.02, 4.47, 4.47, 4.92, 4.92, 5.36, 5.36, 5.81, 5.81, 6.26, 6.26, 6.71, 6.71, 7.15, 7.15, 7.6, 7.6, 7.6, 8.05, 8.05, 8.05, 8.49, 8.94, 8.94, 9.39, 9.39, 9.39, 9.83, 9.83, 10.28, 10.28, 10.73, 10.73, 10.73, 10.73, 11.18, 11.18, 11.18, 11.18, 11.18, 11.18, 11.18, 11.62, 11.62, 11.62, 11.62, 11.62, 11.62, 12.07, 11.62, 11.62, 11.62, 10.73, 9.39, 9.39, 9.39, 9.83, 9.83, 9.83, 9.83, 9.83, 10.28, 10.28, 10.28, 10.28, 10.28, 10.28, -3.58, -3.58, -3.13, -3.13, -2.68, -2.68, -2.24, -2.24, -1.79, -1.79, -1.34, -1.34, -0.89, -0.89, -0.45, 0.0, 0.0, 0.0, 0.45, 0.45, 0.89, 1.34, 1.79, 1.79, 2.24, 2.68, 2.68, 3.13, 3.13, 3.58, 3.58, 4.02, 4.02, 4.47, 4.47, 4.92, 4.92, 5.36, 5.36, 5.81, 5.81, 6.26, 6.26, 6.71, 6.71, 7.15, 7.15, 7.6, 7.6, 7.6, 8.05, 8.05, 8.49, 8.49, 8.94, 8.94, 9.39, 9.39, 9.83, 9.83, 10.28, 10.28, 10.28, 10.73, 10.73, 10.73, 10.73, 10.73, 10.73, 10.73, 10.73, 10.73, 10.73, 11.18, 11.62, 11.62, 11.62, 11.62, 11.62, 11.62, 11.62, 11.62, 11.18, 9.83, 8.94, 8.94, 8.94, 8.94, 9.39, 9.39, 9.39, 9.83, 9.83, 10.28, 10.28, 10.28, 10.28, 10.28, -3.13, -3.13, -3.13, -2.68, -2.68, -2.24, -2.24, -1.79, -1.79, -1.34, -1.34, -0.89, -0.89, -0.45, -0.45, 0.0, 0.0, 0.0, 0.45, 0.45, 0.89, 1.34, 1.79, 1.79, 2.24, 2.24, 2.68, 3.13, 3.13, 3.58, 3.58, 4.02, 4.02, 4.47, 4.47, 4.92, 4.92, 5.36, 5.36, 5.81, 5.81, 6.26, 6.26, 6.71, 6.71, 6.71, 7.15, 7.15, 7.6, 7.6, 7.6, 8.05, 8.49, 8.49, 8.94, 8.94, 8.94, 9.39, 9.39, 9.83, 9.83, 10.28, 10.28, 10.28, 10.73, 10.73, 10.73, 10.73, 10.73, 10.73, 10.73, 10.73, 10.73, 10.73, 10.73, 11.18, 11.18, 11.18, 11.18, 11.18, 11.18, 11.18, 10.73, 9.83, 8.94, 8.49, 8.49, 8.49, 8.94, 8.94, 8.94, 9.39, 9.83, 9.83, 10.28, 10.28, 10.28, 10.28, -3.13, -3.13, -2.68, -2.68, -2.24, -2.24, -2.24, -1.79, -1.79, -1.34, -1.34, -0.89, -0.89, -0.45, 0.0, 0.0, 0.0, 0.0, 0.45, 0.45, 0.89, 1.34, 1.34, 1.79, 2.24, 2.24, 2.68, 3.13, 3.13, 3.58, 3.58, 3.58, 4.02, 4.02, 4.47, 4.47, 4.92, 5.36, 5.36, 5.36, 5.81, 5.81, 6.26, 6.26, 6.71, 6.71, 7.15, 7.15, 7.15, 7.6, 7.6, 8.05, 8.05, 8.49, 8.49, 8.94, 8.94, 9.39, 9.39, 9.83, 9.83, 9.83, 10.28, 10.28, 10.28, 10.28, 10.73, 10.73, 10.73, 10.73, 10.73, 10.73, 10.73, 10.73, 10.73, 10.73, 11.18, 11.18, 11.18, 11.18, 11.18, 11.18, 10.73, 9.39, 8.49, 8.49, 8.05, 8.49, 8.49, 8.94, 8.94, 9.39, 9.39, 9.83, 9.83, 9.83, 9.83, 9.83, -2.68, -2.68, -2.68, -2.24, -2.24, -2.24, -1.79, -1.79, -1.34, -1.34, -0.89, -0.89, -0.45, -0.45, 0.0, 0.0, 0.0, 0.0, 0.45, 0.89, 0.89, 1.34, 1.34, 1.79, 2.24, 2.24, 2.68, 3.13, 3.13, 3.58, 3.58, 3.58, 4.02, 4.02, 4.47, 4.47, 4.92, 4.92, 5.36, 5.36, 5.81, 5.81, 6.26, 6.26, 6.26, 6.71, 6.71, 7.15, 7.15, 7.15, 7.6, 7.6, 8.05, 8.49, 8.49, 8.94, 8.94, 9.39, 9.39, 9.39, 9.83, 9.83, 9.83, 10.28, 10.28, 10.28, 10.28, 10.28, 10.28, 10.73, 10.73, 10.73, 10.73, 10.73, 10.73, 10.73, 10.73, 10.73, 10.73, 10.73, 10.73, 10.73, 10.73, 9.39, 8.05, 8.05, 8.05, 8.49, 8.94, 8.94, 8.94, 9.39, 9.39, 9.83, 9.83, 9.83, 9.83, 9.83, -2.68, -2.68, -2.24, -2.24, -1.79, -1.79, -1.79, -1.34, -1.34, -0.89, -0.89, -0.45, -0.45, 0.0, 0.0, 0.0, 0.0, 0.45, 0.45, 0.89, 0.89, 1.34, 1.34, 1.79, 2.24, 2.68, 2.68, 3.13, 3.13, 3.58, 3.58, 3.58, 4.02, 4.02, 4.47, 4.47, 4.92, 4.92, 5.36, 5.36, 5.81, 5.81, 5.81, 6.26, 6.26, 6.71, 6.71, 6.71, 7.15, 7.15, 7.6, 8.05, 8.05, 8.49, 8.49, 8.49, 8.94, 8.94, 9.39, 9.39, 9.39, 9.83, 9.83, 9.83, 9.83, 10.28, 10.28, 10.28, 10.28, 10.28, 10.28, 10.28, 10.28, 10.28, 10.28, 10.28, 10.28, 10.73, 10.73, 10.73, 10.73, 10.73, 10.73, 10.28, 8.49, 7.6, 8.05, 8.49, 8.94, 9.39, 9.39, 9.39, 9.39, 9.39, 9.39, 9.39, 9.39, 9.39, -2.24, -2.24, -2.24, -1.79, -1.79, -1.79, -1.34, -1.34, -0.89, -0.89, -0.89, -0.45, -0.45, 0.0, 0.0, 0.0, 0.0, 0.45, 0.45, 0.89, 0.89, 1.34, 1.34, 1.79, 2.24, 2.68, 2.68, 3.13, 3.13, 3.58, 3.58, 3.58, 4.02, 4.02, 4.47, 4.47, 4.92, 4.92, 5.36, 5.36, 5.36, 5.81, 5.81, 6.26, 6.26, 6.26, 6.71, 6.71, 7.15, 7.15, 7.6, 8.05, 8.05, 8.05, 8.49, 8.49, 8.94, 8.94, 8.94, 9.39, 9.39, 9.39, 9.83, 9.83, 9.83, 9.83, 9.83, 10.28, 10.28, 10.28, 10.28, 10.28, 10.28, 10.28, 10.28, 10.28, 10.28, 10.28, 10.73, 10.73, 10.73, 10.73, 10.73, 10.73, 8.94, 7.6, 7.6, 8.49, 8.94, 9.39, 9.39, 9.39, 9.39, 9.39, 9.39, 9.39, 9.39, 9.39, -2.24, -2.24, -1.79, -1.79, -1.79, -1.34, -1.34, -0.89, -0.89, -0.89, -0.45, -0.45, 0.0, 0.0, 0.0, 0.0, 0.45, 0.45, 0.89, 0.89, 1.34, 1.34, 1.79, 1.79, 2.24, 2.68, 2.68, 3.13, 3.13, 3.58, 3.58, 3.58, 4.02, 4.02, 4.47, 4.47, 4.92, 4.92, 5.36, 5.36, 5.36, 5.81, 5.81, 5.81, 6.26, 6.26, 6.71, 6.71, 6.71, 7.15, 7.15, 7.6, 8.05, 8.05, 8.49, 8.49, 8.49, 8.94, 8.94, 8.94, 9.39, 9.39, 9.39, 9.83, 9.83, 9.83, 9.83, 9.83, 9.83, 9.83, 9.83, 9.83, 9.83, 9.83, 9.83, 9.83, 9.83, 9.83, 10.28, 10.28, 10.28, 10.28, 10.28, 10.28, 9.83, 8.05, 7.6, 8.05, 8.49, 8.94, 8.94, 9.39, 8.94, 8.94, 8.94, 8.94, 8.94, 8.94, -1.79, -1.79, -1.79, -1.79, -1.34, -1.34, -0.89, -0.89, -0.89, -0.45, -0.45, 0.0, 0.0, 0.0, 0.0, 0.0, 0.45, 0.45, 0.89, 0.89, 1.34, 1.34, 1.79, 1.79, 2.24, 2.68, 2.68, 3.13, 3.13, 3.58, 3.58, 4.02, 4.02, 4.02, 4.47, 4.47, 4.92, 4.92, 4.92, 5.36, 5.36, 5.36, 5.81, 5.81, 6.26, 6.26, 6.26, 6.71, 6.71, 7.15, 7.15, 7.6, 8.05, 8.05, 8.05, 8.49, 8.49, 8.49, 8.94, 8.94, 8.94, 9.39, 9.39, 9.39, 9.39, 9.83, 9.83, 9.83, 9.83, 9.83, 9.83, 9.83, 9.83, 9.83, 9.83, 9.83, 9.83, 9.83, 9.83, 9.83, 10.28, 10.28, 10.28, 10.28, 9.83, 8.49, 7.6, 7.6, 8.05, 8.49, 8.94, 8.94, 8.94, 8.94, 8.94, 8.94, 8.94, 8.94, -1.79, -1.79, -1.79, -1.34, -1.34, -0.89, -0.89, -0.89, -0.45, -0.45, 0.0, 0.0, 0.0, 0.0, 0.0, 0.45, 0.45, 0.89, 0.89, 1.34, 1.34, 1.79, 1.79, 1.79, 2.24, 2.68, 2.68, 3.13, 3.13, 3.58, 3.58, 4.02, 4.02, 4.02, 4.47, 4.47, 4.92, 4.92, 4.92, 5.36, 5.36, 5.36, 5.81, 5.81, 5.81, 6.26, 6.26, 6.71, 6.71, 7.15, 7.6, 7.6, 7.6, 8.05, 8.05, 8.05, 8.49, 8.49, 8.49, 8.94, 8.94, 8.94, 9.39, 9.39, 9.39, 9.39, 9.39, 9.83, 9.83, 9.83, 9.83, 9.83, 9.83, 9.83, 9.83, 9.83, 9.83, 9.83, 9.83, 9.83, 9.83, 10.28, 10.28, 10.28, 9.83, 8.94, 8.05, 7.6, 7.6, 8.05, 8.49, 8.94, 8.94, 8.94, 8.94, 8.94, 8.94, 8.94, -1.79, -1.79, -1.79, -1.34, -1.34, -0.89, -0.89, -0.89, -0.45, -0.45, 0.0, 0.0, 0.0, 0.0, 0.0, 0.45, 0.45, 0.89, 0.89, 1.34, 1.34, 1.79, 1.79, 1.79, 2.24, 2.68, 2.68, 3.13, 3.13, 3.58, 3.58, 4.02, 4.02, 4.02, 4.47, 4.47, 4.92, 4.92, 4.92, 5.36, 5.36, 5.36, 5.81, 5.81, 5.81, 6.26, 6.26, 6.71, 6.71, 7.15, 7.6, 7.6, 7.6, 8.05, 8.05, 8.05, 8.49, 8.49, 8.49, 8.94, 8.94, 8.94, 9.39, 9.39, 9.39, 9.39, 9.39, 9.83, 9.83, 9.83, 9.83, 9.83, 9.83, 9.83, 9.83, 9.83, 9.83, 9.83, 9.83, 9.83, 9.83, 9.83, 9.83, 9.83, 9.83, 9.39, 8.49, 7.6, 7.6, 7.6, 8.05, 8.49, 8.49, 8.94, 8.94, 8.94, 8.94, 8.94]}]